Time,TemperatureF,DewpointF,PressureIn,WindDirection,WindDirectionDegrees,WindSpeedMPH,WindSpeedGustMPH,Humidity,HourlyPrecipIn,Conditions,Clouds,dailyrainin,SoftwareType,DateUTC
2013-05-22 00:00:00,71.2,68.4,29.94,ENE,65,3.0,3.0,91,0.00,,,0.00,Wunderground v.1.15,2013-05-22 04:00:00,
2013-05-22 00:02:00,71.2,68.4,29.94,ENE,65,4.0,4.0,91,0.00,,,0.00,Wunderground v.1.15,2013-05-22 04:02:00,
2013-05-22 00:03:00,71.2,68.4,29.94,ENE,71,4.0,4.0,91,0.00,,,0.00,Wunderground v.1.15,2013-05-22 04:03:00,
2013-05-22 00:04:00,71.2,68.4,29.94,East,84,3.0,4.0,91,0.00,,,0.00,Wunderground v.1.15,2013-05-22 04:04:00,
2013-05-22 00:05:00,71.2,68.4,29.94,ENE,66,4.0,4.0,91,0.00,,,0.00,Wunderground v.1.15,2013-05-22 04:05:00,
2013-05-22 00:06:00,71.2,68.4,29.94,East,84,3.0,4.0,91,0.00,,,0.00,Wunderground v.1.15,2013-05-22 04:06:00,
2013-05-22 00:08:00,71.2,68.1,29.94,East,82,2.0,4.0,90,0.00,,,0.00,Wunderground v.1.15,2013-05-22 04:08:00,
2013-05-22 00:10:00,71.2,68.1,29.94,East,98,5.0,5.0,90,0.00,,,0.00,Wunderground v.1.15,2013-05-22 04:10:00,
2013-05-22 00:11:00,71.2,68.1,29.94,ENE,71,4.0,5.0,90,0.00,,,0.00,Wunderground v.1.15,2013-05-22 04:11:00,
2013-05-22 00:13:00,71.3,68.2,29.94,ENE,77,6.0,6.0,90,0.00,,,0.00,Wunderground v.1.15,2013-05-22 04:13:00,
2013-05-22 00:16:00,71.3,68.2,29.94,East,91,1.0,6.0,90,0.00,,,0.00,Wunderground v.1.15,2013-05-22 04:16:00,
2013-05-22 00:17:00,71.2,68.1,29.94,ENE,77,2.0,6.0,90,0.00,,,0.00,Wunderground v.1.15,2013-05-22 04:17:00,
2013-05-22 00:19:00,71.2,68.1,29.94,ENE,70,4.0,4.0,90,0.00,,,0.00,Wunderground v.1.15,2013-05-22 04:19:00,
2013-05-22 00:23:00,71.2,68.1,29.94,ENE,72,4.0,4.0,90,0.00,,,0.00,Wunderground v.1.15,2013-05-22 04:23:00,
2013-05-22 00:25:00,71.2,68.1,29.94,ENE,68,4.0,6.0,90,0.00,,,0.00,Wunderground v.1.15,2013-05-22 04:25:00,
2013-05-22 00:26:00,71.2,68.1,29.94,East,81,4.0,6.0,90,0.00,,,0.00,Wunderground v.1.15,2013-05-22 04:26:00,
2013-05-22 00:28:00,71.2,68.1,29.94,ENE,63,3.0,6.0,90,0.00,,,0.00,Wunderground v.1.15,2013-05-22 04:28:00,
2013-05-22 00:29:00,71.2,68.1,29.94,ENE,73,4.0,4.0,90,0.00,,,0.00,Wunderground v.1.15,2013-05-22 04:29:00,
2013-05-22 00:30:00,71.1,68.0,29.94,ENE,64,4.0,4.0,90,0.00,,,0.00,Wunderground v.1.15,2013-05-22 04:30:00,
2013-05-22 00:33:00,71.1,68.0,29.93,ENE,72,4.0,7.0,90,0.00,,,0.00,Wunderground v.1.15,2013-05-22 04:33:00,
2013-05-22 00:36:00,71.1,68.0,29.93,ENE,78,5.0,7.0,90,0.00,,,0.00,Wunderground v.1.15,2013-05-22 04:36:00,
2013-05-22 00:38:00,71.0,67.9,29.93,ENE,76,2.0,7.0,90,0.00,,,0.00,Wunderground v.1.15,2013-05-22 04:38:00,
2013-05-22 00:40:00,71.0,68.2,29.93,East,101,3.0,4.0,91,0.00,,,0.00,Wunderground v.1.15,2013-05-22 04:40:00,
2013-05-22 00:43:00,70.9,68.1,29.93,East,80,6.0,6.0,91,0.00,,,0.00,Wunderground v.1.15,2013-05-22 04:43:00,
2013-05-22 00:45:00,70.9,68.1,29.93,East,82,5.0,6.0,91,0.00,,,0.00,Wunderground v.1.15,2013-05-22 04:45:00,
2013-05-22 00:46:00,70.9,68.1,29.93,East,86,4.0,6.0,91,0.00,,,0.00,Wunderground v.1.15,2013-05-22 04:46:00,
2013-05-22 00:48:00,70.8,68.0,29.93,ENE,65,5.0,6.0,91,0.00,,,0.00,Wunderground v.1.15,2013-05-22 04:48:00,
2013-05-22 00:50:00,70.8,68.0,29.93,East,86,6.0,7.0,91,0.00,,,0.00,Wunderground v.1.15,2013-05-22 04:50:00,
2013-05-22 00:52:00,70.7,67.9,29.93,East,79,7.0,7.0,91,0.00,,,0.00,Wunderground v.1.15,2013-05-22 04:52:00,
2013-05-22 00:53:00,70.7,67.9,29.93,ENE,72,6.0,7.0,91,0.00,,,0.00,Wunderground v.1.15,2013-05-22 04:53:00,
2013-05-22 00:55:00,70.7,67.9,29.93,East,84,2.0,7.0,91,0.00,,,0.00,Wunderground v.1.15,2013-05-22 04:55:00,
2013-05-22 00:56:00,70.7,67.9,29.93,ENE,68,3.0,7.0,91,0.00,,,0.00,Wunderground v.1.15,2013-05-22 04:56:00,
2013-05-22 00:59:00,70.6,67.8,29.93,ENE,72,4.0,4.0,91,0.00,,,0.00,Wunderground v.1.15,2013-05-22 04:59:00,
2013-05-22 01:01:00,70.6,67.8,29.93,East,87,0.0,4.0,91,0.00,,,0.00,Wunderground v.1.15,2013-05-22 05:01:00,
2013-05-22 01:03:00,70.6,67.8,29.93,East,83,5.0,5.0,91,0.00,,,0.00,Wunderground v.1.15,2013-05-22 05:03:00,
2013-05-22 01:04:00,70.6,67.8,29.93,ENE,71,3.0,5.0,91,0.00,,,0.00,Wunderground v.1.15,2013-05-22 05:04:00,
2013-05-22 01:06:00,70.5,67.7,29.93,ENE,75,2.0,5.0,91,0.00,,,0.00,Wunderground v.1.15,2013-05-22 05:06:00,
2013-05-22 01:09:00,70.5,67.7,29.93,ENE,58,3.0,3.0,91,0.00,,,0.00,Wunderground v.1.15,2013-05-22 05:09:00,
2013-05-22 01:10:00,70.5,67.7,29.93,ENE,68,5.0,5.0,91,0.00,,,0.00,Wunderground v.1.15,2013-05-22 05:10:00,
2013-05-22 01:11:00,70.5,67.7,29.93,ENE,77,3.0,5.0,91,0.00,,,0.00,Wunderground v.1.15,2013-05-22 05:11:00,
2013-05-22 01:13:00,70.5,67.7,29.93,ENE,67,4.0,5.0,91,0.00,,,0.00,Wunderground v.1.15,2013-05-22 05:13:00,
2013-05-22 01:17:00,70.4,67.6,29.93,East,98,5.0,5.0,91,0.00,,,0.00,Wunderground v.1.15,2013-05-22 05:17:00,
2013-05-22 01:19:00,70.4,67.6,29.93,East,101,1.0,5.0,91,0.00,,,0.00,Wunderground v.1.15,2013-05-22 05:19:00,
2013-05-22 01:21:00,70.4,67.6,29.93,East,95,0.0,3.0,91,0.00,,,0.00,Wunderground v.1.15,2013-05-22 05:21:00,
2013-05-22 01:23:00,70.3,67.5,29.93,ESE,117,0.0,3.0,91,0.00,,,0.00,Wunderground v.1.15,2013-05-22 05:23:00,
2013-05-22 01:24:00,70.3,67.5,29.93,East,98,2.0,3.0,91,0.00,,,0.00,Wunderground v.1.15,2013-05-22 05:24:00,
2013-05-22 01:26:00,70.3,67.5,29.92,ENE,73,1.0,3.0,91,0.00,,,0.00,Wunderground v.1.15,2013-05-22 05:26:00,
2013-05-22 01:27:00,70.2,67.4,29.93,ENE,73,0.0,3.0,91,0.00,,,0.00,Wunderground v.1.15,2013-05-22 05:27:00,
2013-05-22 01:30:00,70.2,67.8,29.92,East,89,3.0,3.0,92,0.00,,,0.00,Wunderground v.1.15,2013-05-22 05:30:00,
2013-05-22 01:32:00,70.2,67.8,29.92,ENE,73,3.0,3.0,92,0.00,,,0.00,Wunderground v.1.15,2013-05-22 05:32:00,
2013-05-22 01:33:00,70.2,67.8,29.92,East,84,3.0,3.0,92,0.00,,,0.00,Wunderground v.1.15,2013-05-22 05:33:00,
2013-05-22 01:34:00,70.1,67.7,29.92,East,82,4.0,4.0,92,0.00,,,0.00,Wunderground v.1.15,2013-05-22 05:34:00,
2013-05-22 01:35:00,70.1,67.7,29.92,ENE,75,2.0,4.0,92,0.00,,,0.00,Wunderground v.1.15,2013-05-22 05:35:00,
2013-05-22 01:38:00,70.1,67.7,29.92,East,95,3.0,4.0,92,0.00,,,0.00,Wunderground v.1.15,2013-05-22 05:38:00,
2013-05-22 01:40:00,70.1,67.7,29.92,ENE,60,5.0,5.0,92,0.00,,,0.00,Wunderground v.1.15,2013-05-22 05:40:00,
2013-05-22 01:41:00,70.1,67.7,29.93,ENE,65,3.0,5.0,92,0.00,,,0.00,Wunderground v.1.15,2013-05-22 05:41:00,
2013-05-22 01:43:00,70.1,67.7,29.93,East,85,4.0,5.0,92,0.00,,,0.00,Wunderground v.1.15,2013-05-22 05:43:00,
2013-05-22 01:44:00,70.1,67.7,29.92,ENE,72,2.0,5.0,92,0.00,,,0.00,Wunderground v.1.15,2013-05-22 05:44:00,
2013-05-22 01:46:00,70.1,67.7,29.92,East,98,1.0,5.0,92,0.00,,,0.00,Wunderground v.1.15,2013-05-22 05:46:00,
2013-05-22 01:48:00,70.1,67.7,29.92,East,82,2.0,5.0,92,0.00,,,0.00,Wunderground v.1.15,2013-05-22 05:48:00,
2013-05-22 01:53:00,70.0,67.6,29.92,ENE,75,3.0,3.0,92,0.00,,,0.00,Wunderground v.1.15,2013-05-22 05:53:00,
2013-05-22 01:55:00,70.0,67.6,29.92,ENE,69,1.0,3.0,92,0.00,,,0.00,Wunderground v.1.15,2013-05-22 05:55:00,
2013-05-22 01:58:00,69.9,67.5,29.92,ENE,75,2.0,3.0,92,0.00,,,0.00,Wunderground v.1.15,2013-05-22 05:58:00,
2013-05-22 02:00:00,69.9,67.5,29.92,NE,56,5.0,5.0,92,0.00,,,0.00,Wunderground v.1.15,2013-05-22 06:00:00,
2013-05-22 02:01:00,69.9,67.5,29.92,ENE,59,3.0,5.0,92,0.00,,,0.00,Wunderground v.1.15,2013-05-22 06:01:00,
2013-05-22 02:03:00,69.9,67.5,29.92,East,79,1.0,6.0,92,0.00,,,0.00,Wunderground v.1.15,2013-05-22 06:03:00,
2013-05-22 02:05:00,69.8,67.4,29.92,ENE,72,1.0,6.0,92,0.00,,,0.00,Wunderground v.1.15,2013-05-22 06:05:00,
2013-05-22 02:06:00,69.8,67.4,29.92,ENE,65,2.0,6.0,92,0.00,,,0.00,Wunderground v.1.15,2013-05-22 06:06:00,
2013-05-22 02:08:00,69.8,67.4,29.92,NNE,31,2.0,6.0,92,0.00,,,0.00,Wunderground v.1.15,2013-05-22 06:08:00,
2013-05-22 02:10:00,69.7,67.3,29.92,NE,51,3.0,3.0,92,0.00,,,0.00,Wunderground v.1.15,2013-05-22 06:10:00,
2013-05-22 02:11:00,69.8,67.4,29.92,NE,56,3.0,3.0,92,0.00,,,0.00,Wunderground v.1.15,2013-05-22 06:11:00,
2013-05-22 02:13:00,69.7,67.3,29.92,ENE,65,2.0,3.0,92,0.00,,,0.00,Wunderground v.1.15,2013-05-22 06:13:00,
2013-05-22 02:15:00,69.7,67.3,29.92,ENE,69,2.0,3.0,92,0.00,,,0.00,Wunderground v.1.15,2013-05-22 06:15:00,
2013-05-22 02:16:00,69.6,67.2,29.92,ENE,65,1.0,3.0,92,0.00,,,0.00,Wunderground v.1.15,2013-05-22 06:16:00,
2013-05-22 02:17:00,69.6,67.2,29.92,ENE,68,2.0,3.0,92,0.00,,,0.00,Wunderground v.1.15,2013-05-22 06:17:00,
2013-05-22 02:18:00,69.6,67.5,29.92,ENE,69,2.0,3.0,93,0.00,,,0.00,Wunderground v.1.15,2013-05-22 06:18:00,
2013-05-22 02:20:00,69.6,67.5,29.92,ENE,72,2.0,2.0,93,0.00,,,0.00,Wunderground v.1.15,2013-05-22 06:20:00,
2013-05-22 02:21:00,69.6,67.5,29.92,ENE,60,1.0,3.0,93,0.00,,,0.00,Wunderground v.1.15,2013-05-22 06:21:00,
2013-05-22 02:22:00,69.6,67.5,29.92,ENE,58,2.0,3.0,93,0.00,,,0.00,Wunderground v.1.15,2013-05-22 06:22:00,
2013-05-22 02:23:00,69.6,67.5,29.92,ENE,58,2.0,3.0,93,0.00,,,0.00,Wunderground v.1.15,2013-05-22 06:23:00,
2013-05-22 02:25:00,69.5,67.4,29.92,NNE,25,0.0,3.0,93,0.00,,,0.00,Wunderground v.1.15,2013-05-22 06:25:00,
2013-05-22 02:26:00,69.5,67.4,29.92,NNE,23,2.0,3.0,93,0.00,,,0.00,Wunderground v.1.15,2013-05-22 06:26:00,
2013-05-22 02:27:00,69.5,67.4,29.92,NNE,23,1.0,3.0,93,0.00,,,0.00,Wunderground v.1.15,2013-05-22 06:27:00,
2013-05-22 02:29:00,69.5,67.4,29.92,NE,43,1.0,3.0,93,0.00,,,0.00,Wunderground v.1.15,2013-05-22 06:29:00,
2013-05-22 02:31:00,69.4,67.3,29.92,NE,43,2.0,2.0,93,0.00,,,0.00,Wunderground v.1.15,2013-05-22 06:31:00,
2013-05-22 02:32:00,69.4,67.3,29.92,NE,41,1.0,3.0,93,0.00,,,0.00,Wunderground v.1.15,2013-05-22 06:32:00,
2013-05-22 02:34:00,69.4,67.3,29.92,NE,41,1.0,3.0,93,0.00,,,0.00,Wunderground v.1.15,2013-05-22 06:34:00,
2013-05-22 02:36:00,69.4,67.3,29.92,NE,41,2.0,3.0,93,0.00,,,0.00,Wunderground v.1.15,2013-05-22 06:36:00,
2013-05-22 02:37:00,69.4,67.3,29.92,NE,41,1.0,3.0,93,0.00,,,0.00,Wunderground v.1.15,2013-05-22 06:37:00,
2013-05-22 02:38:00,69.4,67.3,29.92,NE,41,1.0,3.0,93,0.00,,,0.00,Wunderground v.1.15,2013-05-22 06:38:00,
2013-05-22 02:39:00,69.4,67.3,29.92,NE,41,1.0,3.0,93,0.00,,,0.00,Wunderground v.1.15,2013-05-22 06:39:00,
2013-05-22 02:41:00,69.3,67.2,29.92,ENE,69,2.0,3.0,93,0.00,,,0.00,Wunderground v.1.15,2013-05-22 06:41:00,
2013-05-22 02:42:00,69.3,67.2,29.92,ENE,72,2.0,3.0,93,0.00,,,0.00,Wunderground v.1.15,2013-05-22 06:42:00,
2013-05-22 02:43:00,69.3,67.2,29.91,ENE,70,2.0,3.0,93,0.00,,,0.00,Wunderground v.1.15,2013-05-22 06:43:00,
2013-05-22 02:44:00,69.3,67.2,29.92,ENE,70,1.0,3.0,93,0.00,,,0.00,Wunderground v.1.15,2013-05-22 06:44:00,
2013-05-22 02:46:00,69.3,67.2,29.92,ENE,75,1.0,3.0,93,0.00,,,0.00,Wunderground v.1.15,2013-05-22 06:46:00,
2013-05-22 02:47:00,69.3,67.2,29.91,ENE,75,1.0,3.0,93,0.00,,,0.00,Wunderground v.1.15,2013-05-22 06:47:00,
2013-05-22 02:48:00,69.3,67.2,29.91,ENE,75,2.0,3.0,93,0.00,,,0.00,Wunderground v.1.15,2013-05-22 06:48:00,
2013-05-22 02:49:00,69.3,67.2,29.91,ENE,75,2.0,3.0,93,0.00,,,0.00,Wunderground v.1.15,2013-05-22 06:49:00,
2013-05-22 02:52:00,69.2,67.1,29.91,ENE,78,1.0,3.0,93,0.00,,,0.00,Wunderground v.1.15,2013-05-22 06:52:00,
2013-05-22 02:53:00,69.2,67.1,29.91,ENE,72,2.0,3.0,93,0.00,,,0.00,Wunderground v.1.15,2013-05-22 06:53:00,
2013-05-22 02:54:00,69.2,67.1,29.91,ENE,68,3.0,4.0,93,0.00,,,0.00,Wunderground v.1.15,2013-05-22 06:54:00,
2013-05-22 02:57:00,69.2,67.4,29.91,ENE,76,2.0,4.0,94,0.00,,,0.00,Wunderground v.1.15,2013-05-22 06:57:00,
2013-05-22 02:58:00,69.2,67.4,29.91,ENE,76,2.0,4.0,94,0.00,,,0.00,Wunderground v.1.15,2013-05-22 06:58:00,
2013-05-22 02:59:00,69.2,67.4,29.91,ENE,60,2.0,4.0,94,0.00,,,0.00,Wunderground v.1.15,2013-05-22 06:59:00,
2013-05-22 03:02:00,69.2,67.4,29.91,ENE,72,1.0,4.0,94,0.00,,,0.00,Wunderground v.1.15,2013-05-22 07:02:00,
2013-05-22 03:03:00,69.2,67.4,29.91,ENE,71,1.0,4.0,94,0.00,,,0.00,Wunderground v.1.15,2013-05-22 07:03:00,
2013-05-22 03:04:00,69.2,67.4,29.91,East,79,1.0,4.0,94,0.00,,,0.00,Wunderground v.1.15,2013-05-22 07:04:00,
2013-05-22 03:07:00,69.1,67.3,29.91,East,80,1.0,4.0,94,0.00,,,0.00,Wunderground v.1.15,2013-05-22 07:07:00,
2013-05-22 03:08:00,69.1,67.3,29.91,East,79,2.0,4.0,94,0.00,,,0.00,Wunderground v.1.15,2013-05-22 07:08:00,
2013-05-22 03:09:00,69.0,67.2,29.91,ENE,72,3.0,4.0,94,0.00,,,0.00,Wunderground v.1.15,2013-05-22 07:09:00,
2013-05-22 03:12:00,69.0,67.2,29.90,ENE,70,3.0,3.0,94,0.00,,,0.00,Wunderground v.1.15,2013-05-22 07:12:00,
2013-05-22 03:13:00,69.0,67.2,29.91,ENE,72,1.0,3.0,94,0.00,,,0.00,Wunderground v.1.15,2013-05-22 07:13:00,
2013-05-22 03:14:00,69.0,67.2,29.90,ENE,72,2.0,3.0,94,0.00,,,0.00,Wunderground v.1.15,2013-05-22 07:14:00,
2013-05-22 03:18:00,69.0,67.2,29.90,ENE,68,2.0,4.0,94,0.00,,,0.00,Wunderground v.1.15,2013-05-22 07:18:00,
2013-05-22 03:19:00,69.0,67.2,29.90,ENE,75,3.0,4.0,94,0.00,,,0.00,Wunderground v.1.15,2013-05-22 07:19:00,
2013-05-22 03:23:00,68.9,67.1,29.90,East,84,2.0,4.0,94,0.00,,,0.00,Wunderground v.1.15,2013-05-22 07:23:00,
2013-05-22 03:24:00,68.9,67.1,29.90,ENE,72,2.0,4.0,94,0.00,,,0.00,Wunderground v.1.15,2013-05-22 07:24:00,
2013-05-22 03:28:00,68.9,67.1,29.90,East,84,3.0,4.0,94,0.00,,,0.00,Wunderground v.1.15,2013-05-22 07:28:00,
2013-05-22 03:29:00,68.8,67.0,29.90,East,80,1.0,4.0,94,0.00,,,0.00,Wunderground v.1.15,2013-05-22 07:29:00,
2013-05-22 03:33:00,68.8,67.0,29.90,East,82,2.0,2.0,94,0.00,,,0.00,Wunderground v.1.15,2013-05-22 07:33:00,
2013-05-22 03:34:00,68.8,67.0,29.90,East,79,2.0,2.0,94,0.00,,,0.00,Wunderground v.1.15,2013-05-22 07:34:00,
2013-05-22 03:35:00,68.8,67.0,29.90,ENE,75,1.0,2.0,94,0.00,,,0.00,Wunderground v.1.15,2013-05-22 07:35:00,
2013-05-22 03:38:00,68.8,67.0,29.90,NE,44,1.0,3.0,94,0.00,,,0.00,Wunderground v.1.15,2013-05-22 07:38:00,
2013-05-22 03:39:00,68.8,67.0,29.90,NE,39,2.0,3.0,94,0.00,,,0.00,Wunderground v.1.15,2013-05-22 07:39:00,
2013-05-22 03:40:00,68.8,67.0,29.90,NE,39,0.0,2.0,94,0.00,,,0.00,Wunderground v.1.15,2013-05-22 07:40:00,
2013-05-22 03:44:00,68.7,66.9,29.90,ENE,75,1.0,3.0,94,0.00,,,0.00,Wunderground v.1.15,2013-05-22 07:44:00,
2013-05-22 03:45:00,68.7,66.9,29.90,NE,46,3.0,4.0,94,0.00,,,0.00,Wunderground v.1.15,2013-05-22 07:45:00,
2013-05-22 03:49:00,68.7,66.9,29.90,NNE,16,2.0,4.0,94,0.00,,,0.00,Wunderground v.1.15,2013-05-22 07:49:00,
2013-05-22 03:50:00,68.7,66.9,29.90,North,7,2.0,3.0,94,0.00,,,0.00,Wunderground v.1.15,2013-05-22 07:50:00,
2013-05-22 03:54:00,68.6,66.8,29.90,East,91,1.0,3.0,94,0.00,,,0.00,Wunderground v.1.15,2013-05-22 07:54:00,
2013-05-22 03:55:00,68.6,66.8,29.90,East,87,1.0,3.0,94,0.00,,,0.00,Wunderground v.1.15,2013-05-22 07:55:00,
2013-05-22 03:59:00,68.6,66.8,29.90,East,94,1.0,4.0,94,0.00,,,0.00,Wunderground v.1.15,2013-05-22 07:59:00,
2013-05-22 04:00:00,68.5,66.7,29.90,East,85,1.0,1.0,94,0.00,,,0.00,Wunderground v.1.15,2013-05-22 08:00:00,
2013-05-22 04:04:00,68.5,66.7,29.90,ENE,75,1.0,2.0,94,0.00,,,0.00,Wunderground v.1.15,2013-05-22 08:04:00,
2013-05-22 04:05:00,68.5,66.7,29.90,ENE,75,2.0,2.0,94,0.00,,,0.00,Wunderground v.1.15,2013-05-22 08:05:00,
2013-05-22 04:09:00,68.5,66.7,29.90,ENE,65,2.0,3.0,94,0.00,,,0.00,Wunderground v.1.15,2013-05-22 08:09:00,
2013-05-22 04:10:00,68.5,66.7,29.90,ENE,69,2.0,2.0,94,0.00,,,0.00,Wunderground v.1.15,2013-05-22 08:10:00,
2013-05-22 04:11:00,68.5,66.7,29.90,ENE,70,1.0,3.0,94,0.00,,,0.00,Wunderground v.1.15,2013-05-22 08:11:00,
2013-05-22 04:14:00,68.5,66.7,29.90,ENE,67,2.0,4.0,94,0.00,,,0.00,Wunderground v.1.15,2013-05-22 08:14:00,
2013-05-22 04:15:00,68.5,66.7,29.90,ENE,67,2.0,4.0,94,0.00,,,0.00,Wunderground v.1.15,2013-05-22 08:15:00,
2013-05-22 04:16:00,68.4,66.6,29.90,ENE,68,3.0,4.0,94,0.00,,,0.00,Wunderground v.1.15,2013-05-22 08:16:00,
2013-05-22 04:20:00,68.4,66.6,29.90,ENE,72,2.0,2.0,94,0.00,,,0.00,Wunderground v.1.15,2013-05-22 08:20:00,
2013-05-22 04:21:00,68.4,66.6,29.90,East,85,2.0,3.0,94,0.00,,,0.00,Wunderground v.1.15,2013-05-22 08:21:00,
2013-05-22 04:25:00,68.4,66.6,29.90,East,79,5.0,5.0,94,0.00,,,0.00,Wunderground v.1.15,2013-05-22 08:25:00,
2013-05-22 04:26:00,68.4,66.6,29.90,ENE,72,3.0,5.0,94,0.00,,,0.00,Wunderground v.1.15,2013-05-22 08:26:00,
2013-05-22 04:30:00,68.4,66.6,29.90,NE,55,1.0,3.0,94,0.00,,,0.00,Wunderground v.1.15,2013-05-22 08:30:00,
2013-05-22 04:31:00,68.4,66.6,29.90,ENE,73,3.0,4.0,94,0.00,,,0.00,Wunderground v.1.15,2013-05-22 08:31:00,
2013-05-22 04:32:00,68.4,66.6,29.90,ENE,72,2.0,4.0,94,0.00,,,0.00,Wunderground v.1.15,2013-05-22 08:32:00,
2013-05-22 04:35:00,68.4,66.6,29.90,ENE,60,2.0,4.0,94,0.00,,,0.00,Wunderground v.1.15,2013-05-22 08:35:00,
2013-05-22 04:37:00,68.3,66.5,29.90,ENE,72,2.0,4.0,94,0.00,,,0.00,Wunderground v.1.15,2013-05-22 08:37:00,
2013-05-22 04:40:00,68.3,66.8,29.90,ENE,62,4.0,5.0,95,0.00,,,0.00,Wunderground v.1.15,2013-05-22 08:40:00,
2013-05-22 04:41:00,68.3,66.8,29.90,ENE,69,3.0,5.0,95,0.00,,,0.00,Wunderground v.1.15,2013-05-22 08:41:00,
2013-05-22 04:42:00,68.4,66.9,29.90,ENE,75,2.0,5.0,95,0.00,,,0.00,Wunderground v.1.15,2013-05-22 08:42:00,
2013-05-22 04:43:00,68.3,66.8,29.90,ENE,72,2.0,5.0,95,0.00,,,0.00,Wunderground v.1.15,2013-05-22 08:43:00,
2013-05-22 04:45:00,68.3,66.8,29.90,ENE,70,2.0,5.0,95,0.00,,,0.00,Wunderground v.1.15,2013-05-22 08:45:00,
2013-05-22 04:47:00,68.3,66.8,29.90,East,96,5.0,5.0,95,0.00,,,0.00,Wunderground v.1.15,2013-05-22 08:47:00,
2013-05-22 04:48:00,68.3,66.8,29.90,ENE,62,2.0,5.0,95,0.00,,,0.00,Wunderground v.1.15,2013-05-22 08:48:00,
2013-05-22 04:50:00,68.3,66.8,29.90,East,80,2.0,3.0,95,0.00,,,0.00,Wunderground v.1.15,2013-05-22 08:50:00,
2013-05-22 04:52:00,68.3,66.8,29.90,ENE,72,4.0,4.0,95,0.00,,,0.00,Wunderground v.1.15,2013-05-22 08:52:00,
2013-05-22 04:53:00,68.3,66.8,29.90,ENE,68,3.0,4.0,95,0.00,,,0.00,Wunderground v.1.15,2013-05-22 08:53:00,
2013-05-22 04:56:00,68.3,66.8,29.90,ENE,75,3.0,4.0,95,0.00,,,0.00,Wunderground v.1.15,2013-05-22 08:56:00,
2013-05-22 04:57:00,68.3,66.8,29.90,ENE,72,3.0,4.0,95,0.00,,,0.00,Wunderground v.1.15,2013-05-22 08:57:00,
2013-05-22 04:59:00,68.3,66.8,29.90,ENE,75,2.0,4.0,95,0.00,,,0.00,Wunderground v.1.15,2013-05-22 08:59:00,
2013-05-22 05:01:00,68.3,66.8,29.90,ENE,72,2.0,4.0,95,0.00,,,0.00,Wunderground v.1.15,2013-05-22 09:01:00,
2013-05-22 05:02:00,68.3,66.8,29.90,ENE,75,3.0,5.0,95,0.00,,,0.00,Wunderground v.1.15,2013-05-22 09:02:00,
2013-05-22 05:04:00,68.3,66.8,29.90,ENE,73,3.0,5.0,95,0.00,,,0.00,Wunderground v.1.15,2013-05-22 09:04:00,
2013-05-22 05:06:00,68.3,66.8,29.90,East,95,2.0,5.0,95,0.00,,,0.00,Wunderground v.1.15,2013-05-22 09:06:00,
2013-05-22 05:07:00,68.3,66.8,29.90,ENE,77,3.0,5.0,95,0.00,,,0.00,Wunderground v.1.15,2013-05-22 09:07:00,
2013-05-22 05:09:00,68.3,66.8,29.90,ESE,108,0.0,5.0,95,0.00,,,0.00,Wunderground v.1.15,2013-05-22 09:09:00,
2013-05-22 05:11:00,68.3,66.8,29.90,ESE,115,1.0,3.0,95,0.00,,,0.00,Wunderground v.1.15,2013-05-22 09:11:00,
2013-05-22 05:12:00,68.3,66.8,29.90,ESE,111,0.0,3.0,95,0.00,,,0.00,Wunderground v.1.15,2013-05-22 09:12:00,
2013-05-22 05:13:00,68.3,66.8,29.90,ESE,112,1.0,3.0,95,0.00,,,0.00,Wunderground v.1.15,2013-05-22 09:13:00,
2013-05-22 05:14:00,68.3,66.8,29.91,East,82,0.0,3.0,95,0.00,,,0.00,Wunderground v.1.15,2013-05-22 09:14:00,
2013-05-22 05:16:00,68.3,66.8,29.90,East,79,1.0,3.0,95,0.00,,,0.00,Wunderground v.1.15,2013-05-22 09:16:00,
2013-05-22 05:17:00,68.3,66.8,29.90,ESE,108,2.0,3.0,95,0.00,,,0.00,Wunderground v.1.15,2013-05-22 09:17:00,
2013-05-22 05:18:00,68.3,66.8,29.91,East,101,1.0,3.0,95,0.00,,,0.00,Wunderground v.1.15,2013-05-22 09:18:00,
2013-05-22 05:19:00,68.3,66.8,29.90,ENE,75,2.0,3.0,95,0.00,,,0.00,Wunderground v.1.15,2013-05-22 09:19:00,
2013-05-22 05:21:00,68.3,66.8,29.90,East,79,2.0,2.0,95,0.00,,,0.00,Wunderground v.1.15,2013-05-22 09:21:00,
2013-05-22 05:22:00,68.3,66.8,29.91,East,82,0.0,2.0,95,0.00,,,0.00,Wunderground v.1.15,2013-05-22 09:22:00,
2013-05-22 05:23:00,68.3,66.8,29.91,East,80,1.0,2.0,95,0.00,,,0.00,Wunderground v.1.15,2013-05-22 09:23:00,
2013-05-22 05:24:00,68.3,66.8,29.91,East,82,3.0,3.0,95,0.00,,,0.00,Wunderground v.1.15,2013-05-22 09:24:00,
2013-05-22 05:26:00,68.4,66.9,29.91,East,94,2.0,3.0,95,0.00,,,0.00,Wunderground v.1.15,2013-05-22 09:26:00,
2013-05-22 05:27:00,68.4,66.9,29.91,ESE,103,1.0,3.0,95,0.00,,,0.00,Wunderground v.1.15,2013-05-22 09:27:00,
2013-05-22 05:28:00,68.3,66.8,29.91,ESE,103,1.0,3.0,95,0.00,,,0.00,Wunderground v.1.15,2013-05-22 09:28:00,
2013-05-22 05:29:00,68.3,66.8,29.91,ENE,77,2.0,3.0,95,0.00,,,0.00,Wunderground v.1.15,2013-05-22 09:29:00,
2013-05-22 05:30:00,68.4,66.9,29.90,East,91,2.0,3.0,95,0.00,,,0.00,Wunderground v.1.15,2013-05-22 09:30:00,
2013-05-22 05:31:00,68.4,66.9,29.90,ENE,78,2.0,3.0,95,0.00,,,0.00,Wunderground v.1.15,2013-05-22 09:31:00,
2013-05-22 05:32:00,68.4,66.9,29.90,ENE,76,1.0,3.0,95,0.00,,,0.00,Wunderground v.1.15,2013-05-22 09:32:00,
2013-05-22 05:33:00,68.4,66.9,29.90,ENE,77,2.0,3.0,95,0.00,,,0.00,Wunderground v.1.15,2013-05-22 09:33:00,
2013-05-22 05:34:00,68.4,66.9,29.90,ENE,71,1.0,3.0,95,0.00,,,0.00,Wunderground v.1.15,2013-05-22 09:34:00,
2013-05-22 05:35:00,68.4,66.9,29.90,East,88,2.0,3.0,95,0.00,,,0.00,Wunderground v.1.15,2013-05-22 09:35:00,
2013-05-22 05:37:00,68.4,66.9,29.90,East,89,3.0,3.0,95,0.00,,,0.00,Wunderground v.1.15,2013-05-22 09:37:00,
2013-05-22 05:38:00,68.4,66.9,29.90,SE,144,2.0,3.0,95,0.00,,,0.00,Wunderground v.1.15,2013-05-22 09:38:00,
2013-05-22 05:39:00,68.4,66.9,29.90,ESE,105,2.0,3.0,95,0.00,,,0.00,Wunderground v.1.15,2013-05-22 09:39:00,
2013-05-22 05:41:00,68.5,67.0,29.90,East,98,0.0,2.0,95,0.00,,,0.00,Wunderground v.1.15,2013-05-22 09:41:00,
2013-05-22 05:42:00,68.5,67.0,29.90,ESE,108,1.0,2.0,95,0.00,,,0.00,Wunderground v.1.15,2013-05-22 09:42:00,
2013-05-22 05:43:00,68.5,67.0,29.90,East,93,1.0,3.0,95,0.00,,,0.00,Wunderground v.1.15,2013-05-22 09:43:00,
2013-05-22 05:44:00,68.6,67.1,29.90,ESE,113,1.0,4.0,95,0.00,,,0.00,Wunderground v.1.15,2013-05-22 09:44:00,
2013-05-22 05:46:00,68.6,67.1,29.90,East,91,3.0,4.0,95,0.00,,,0.00,Wunderground v.1.15,2013-05-22 09:46:00,
2013-05-22 05:48:00,68.6,67.1,29.90,ENE,72,3.0,4.0,95,0.00,,,0.00,Wunderground v.1.15,2013-05-22 09:48:00,
2013-05-22 05:49:00,68.6,67.1,29.90,East,82,2.0,4.0,95,0.00,,,0.00,Wunderground v.1.15,2013-05-22 09:49:00,
2013-05-22 05:51:00,68.6,67.1,29.90,ENE,72,2.0,4.0,95,0.00,,,0.00,Wunderground v.1.15,2013-05-22 09:51:00,
2013-05-22 05:53:00,68.6,67.1,29.90,ENE,68,2.0,4.0,95,0.00,,,0.00,Wunderground v.1.15,2013-05-22 09:53:00,
2013-05-22 05:54:00,68.6,67.1,29.90,ENE,78,2.0,4.0,95,0.00,,,0.00,Wunderground v.1.15,2013-05-22 09:54:00,
2013-05-22 05:56:00,68.6,67.1,29.90,East,89,1.0,4.0,95,0.00,,,0.00,Wunderground v.1.15,2013-05-22 09:56:00,
2013-05-22 05:58:00,68.6,67.1,29.90,East,91,2.0,4.0,95,0.00,,,0.00,Wunderground v.1.15,2013-05-22 09:58:00,
2013-05-22 05:59:00,68.6,67.1,29.90,East,91,1.0,4.0,95,0.00,,,0.00,Wunderground v.1.15,2013-05-22 09:59:00,
2013-05-22 06:01:00,68.6,67.1,29.90,East,100,1.0,2.0,95,0.00,,,0.00,Wunderground v.1.15,2013-05-22 10:01:00,
2013-05-22 06:04:00,68.6,67.1,29.91,ENE,77,2.0,3.0,95,0.00,,,0.00,Wunderground v.1.15,2013-05-22 10:04:00,
2013-05-22 06:07:00,68.6,67.1,29.91,East,92,5.0,5.0,95,0.00,,,0.00,Wunderground v.1.15,2013-05-22 10:07:00,
2013-05-22 06:09:00,68.6,67.1,29.91,East,91,2.0,5.0,95,0.00,,,0.00,Wunderground v.1.15,2013-05-22 10:09:00,
2013-05-22 06:10:00,68.6,67.1,29.91,ESE,107,4.0,5.0,95,0.00,,,0.00,Wunderground v.1.15,2013-05-22 10:10:00,
2013-05-22 06:12:00,68.6,67.1,29.91,East,88,3.0,5.0,95,0.00,,,0.00,Wunderground v.1.15,2013-05-22 10:12:00,
2013-05-22 06:14:00,68.6,67.1,29.91,East,89,3.0,5.0,95,0.00,,,0.00,Wunderground v.1.15,2013-05-22 10:14:00,
2013-05-22 06:15:00,68.6,67.1,29.91,ENE,75,3.0,5.0,95,0.00,,,0.00,Wunderground v.1.15,2013-05-22 10:15:00,
2013-05-22 06:17:00,68.6,67.1,29.91,ENE,78,2.0,5.0,95,0.00,,,0.00,Wunderground v.1.15,2013-05-22 10:17:00,
2013-05-22 06:19:00,68.6,67.1,29.91,NE,55,2.0,2.0,95,0.00,,,0.00,Wunderground v.1.15,2013-05-22 10:19:00,
2013-05-22 06:20:00,68.6,67.1,29.91,ENE,77,1.0,2.0,95,0.00,,,0.00,Wunderground v.1.15,2013-05-22 10:20:00,
2013-05-22 06:22:00,68.6,67.1,29.91,East,99,2.0,4.0,95,0.00,,,0.00,Wunderground v.1.15,2013-05-22 10:22:00,
2013-05-22 06:25:00,68.6,67.1,29.91,East,82,1.0,4.0,95,0.00,,,0.00,Wunderground v.1.15,2013-05-22 10:25:00,
2013-05-22 06:26:00,68.6,67.1,29.91,ENE,76,1.0,4.0,95,0.00,,,0.00,Wunderground v.1.15,2013-05-22 10:26:00,
2013-05-22 06:27:00,68.6,67.1,29.91,ENE,75,1.0,4.0,95,0.00,,,0.00,Wunderground v.1.15,2013-05-22 10:27:00,
2013-05-22 06:30:00,68.6,67.1,29.91,East,97,1.0,2.0,95,0.00,,,0.00,Wunderground v.1.15,2013-05-22 10:30:00,
2013-05-22 06:31:00,68.5,67.0,29.91,East,97,0.0,2.0,95,0.00,,,0.00,Wunderground v.1.15,2013-05-22 10:31:00,
2013-05-22 06:33:00,68.5,67.0,29.91,East,97,0.0,2.0,95,0.00,,,0.00,Wunderground v.1.15,2013-05-22 10:33:00,
2013-05-22 06:35:00,68.5,67.0,29.91,ESE,121,0.0,2.0,95,0.00,,,0.00,Wunderground v.1.15,2013-05-22 10:35:00,
2013-05-22 06:36:00,68.5,67.0,29.91,ESE,121,0.0,2.0,95,0.00,,,0.00,Wunderground v.1.15,2013-05-22 10:36:00,
2013-05-22 06:38:00,68.5,67.0,29.91,ESE,102,1.0,2.0,95,0.00,,,0.00,Wunderground v.1.15,2013-05-22 10:38:00,
2013-05-22 06:40:00,68.5,67.0,29.91,East,94,0.0,2.0,95,0.00,,,0.00,Wunderground v.1.15,2013-05-22 10:40:00,
2013-05-22 06:41:00,68.5,67.0,29.91,East,95,0.0,2.0,95,0.00,,,0.00,Wunderground v.1.15,2013-05-22 10:41:00,
2013-05-22 06:43:00,68.5,67.0,29.91,East,95,0.0,2.0,95,0.00,,,0.00,Wunderground v.1.15,2013-05-22 10:43:00,
2013-05-22 06:45:00,68.5,67.0,29.91,East,95,1.0,2.0,95,0.00,,,0.00,Wunderground v.1.15,2013-05-22 10:45:00,
2013-05-22 06:46:00,68.4,66.9,29.91,East,95,1.0,2.0,95,0.00,,,0.00,Wunderground v.1.15,2013-05-22 10:46:00,
2013-05-22 06:48:00,68.5,67.0,29.91,ESE,103,0.0,2.0,95,0.00,,,0.00,Wunderground v.1.15,2013-05-22 10:48:00,
2013-05-22 06:50:00,68.5,67.0,29.91,ESE,103,0.0,1.0,95,0.00,,,0.00,Wunderground v.1.15,2013-05-22 10:50:00,
2013-05-22 06:52:00,68.5,67.0,29.91,ESE,103,1.0,1.0,95,0.00,,,0.00,Wunderground v.1.15,2013-05-22 10:52:00,
2013-05-22 06:54:00,68.5,67.0,29.91,ESE,103,1.0,1.0,95,0.00,,,0.00,Wunderground v.1.15,2013-05-22 10:54:00,
2013-05-22 06:55:00,68.6,67.1,29.91,ESE,103,1.0,2.0,95,0.00,,,0.00,Wunderground v.1.15,2013-05-22 10:55:00,
2013-05-22 06:57:00,68.6,67.1,29.91,ESE,103,1.0,2.0,95,0.00,,,0.00,Wunderground v.1.15,2013-05-22 10:57:00,
2013-05-22 06:59:00,68.7,67.2,29.91,ESE,103,0.0,2.0,95,0.00,,,0.00,Wunderground v.1.15,2013-05-22 10:59:00,
2013-05-22 07:00:00,68.7,67.2,29.91,ESE,103,1.0,1.0,95,0.00,,,0.00,Wunderground v.1.15,2013-05-22 11:00:00,
2013-05-22 07:01:00,68.7,67.2,29.91,ESE,103,1.0,1.0,95,0.00,,,0.00,Wunderground v.1.15,2013-05-22 11:01:00,
2013-05-22 07:02:00,68.8,67.3,29.91,ESE,103,1.0,2.0,95,0.00,,,0.00,Wunderground v.1.15,2013-05-22 11:02:00,
2013-05-22 07:04:00,68.8,67.3,29.91,East,82,2.0,2.0,95,0.00,,,0.00,Wunderground v.1.15,2013-05-22 11:04:00,
2013-05-22 07:06:00,68.9,67.4,29.91,East,85,1.0,2.0,95,0.00,,,0.00,Wunderground v.1.15,2013-05-22 11:06:00,
2013-05-22 07:07:00,68.9,67.4,29.91,East,85,2.0,2.0,95,0.00,,,0.00,Wunderground v.1.15,2013-05-22 11:07:00,
2013-05-22 07:09:00,69.0,67.5,29.91,East,95,1.0,2.0,95,0.00,,,0.00,Wunderground v.1.15,2013-05-22 11:09:00,
2013-05-22 07:11:00,69.1,67.6,29.91,East,95,1.0,1.0,95,0.00,,,0.00,Wunderground v.1.15,2013-05-22 11:11:00,
2013-05-22 07:12:00,69.2,67.7,29.91,East,91,2.0,2.0,95,0.00,,,0.00,Wunderground v.1.15,2013-05-22 11:12:00,
2013-05-22 07:14:00,69.3,67.8,29.91,East,100,1.0,2.0,95,0.00,,,0.00,Wunderground v.1.15,2013-05-22 11:14:00,
2013-05-22 07:16:00,69.4,67.9,29.91,ENE,73,2.0,4.0,95,0.00,,,0.00,Wunderground v.1.15,2013-05-22 11:16:00,
2013-05-22 07:17:00,69.4,67.9,29.91,ENE,75,1.0,4.0,95,0.00,,,0.00,Wunderground v.1.15,2013-05-22 11:17:00,
2013-05-22 07:19:00,69.5,68.0,29.91,ENE,75,1.0,4.0,95,0.00,,,0.00,Wunderground v.1.15,2013-05-22 11:19:00,
2013-05-22 07:21:00,69.7,67.9,29.91,ENE,67,1.0,2.0,94,0.00,,,0.00,Wunderground v.1.15,2013-05-22 11:21:00,
2013-05-22 07:22:00,69.7,67.9,29.91,ENE,67,2.0,2.0,94,0.00,,,0.00,Wunderground v.1.15,2013-05-22 11:22:00,
2013-05-22 07:23:00,69.8,68.0,29.91,ENE,67,1.0,2.0,94,0.00,,,0.00,Wunderground v.1.15,2013-05-22 11:23:00,
2013-05-22 07:24:00,69.8,68.0,29.91,ENE,67,2.0,2.0,94,0.00,,,0.00,Wunderground v.1.15,2013-05-22 11:24:00,
2013-05-22 07:26:00,69.9,68.1,29.91,ENE,64,2.0,3.0,94,0.00,,,0.00,Wunderground v.1.15,2013-05-22 11:26:00,
2013-05-22 07:27:00,69.9,68.1,29.91,ENE,70,2.0,3.0,94,0.00,,,0.00,Wunderground v.1.15,2013-05-22 11:27:00,
2013-05-22 07:28:00,70.0,68.2,29.91,ENE,75,2.0,3.0,94,0.00,,,0.00,Wunderground v.1.15,2013-05-22 11:28:00,
2013-05-22 07:29:00,70.1,68.3,29.91,ENE,72,1.0,3.0,94,0.00,,,0.00,Wunderground v.1.15,2013-05-22 11:29:00,
2013-05-22 07:30:00,70.1,68.3,29.91,ENE,65,2.0,2.0,94,0.00,,,0.00,Wunderground v.1.15,2013-05-22 11:30:00,
2013-05-22 07:31:00,70.2,68.4,29.92,ENE,75,1.0,2.0,94,0.00,,,0.00,Wunderground v.1.15,2013-05-22 11:31:00,
2013-05-22 07:32:00,70.2,68.4,29.92,ENE,75,1.0,2.0,94,0.00,,,0.00,Wunderground v.1.15,2013-05-22 11:32:00,
2013-05-22 07:33:00,70.3,68.5,29.92,ENE,75,2.0,2.0,94,0.00,,,0.00,Wunderground v.1.15,2013-05-22 11:33:00,
2013-05-22 07:34:00,70.4,68.6,29.92,ENE,75,1.0,2.0,94,0.00,,,0.00,Wunderground v.1.15,2013-05-22 11:34:00,
2013-05-22 07:35:00,70.4,68.6,29.92,ENE,75,1.0,2.0,94,0.00,,,0.00,Wunderground v.1.15,2013-05-22 11:35:00,
2013-05-22 07:36:00,70.6,68.8,29.92,East,86,2.0,2.0,94,0.00,,,0.00,Wunderground v.1.15,2013-05-22 11:36:00,
2013-05-22 07:37:00,70.7,68.9,29.92,East,85,2.0,2.0,94,0.00,,,0.00,Wunderground v.1.15,2013-05-22 11:37:00,
2013-05-22 07:38:00,70.7,68.9,29.92,ENE,75,2.0,2.0,94,0.00,,,0.00,Wunderground v.1.15,2013-05-22 11:38:00,
2013-05-22 07:39:00,70.7,68.9,29.92,ENE,75,2.0,2.0,94,0.00,,,0.00,Wunderground v.1.15,2013-05-22 11:39:00,
2013-05-22 07:40:00,70.8,69.0,29.92,ENE,76,2.0,3.0,94,0.00,,,0.00,Wunderground v.1.15,2013-05-22 11:40:00,
2013-05-22 07:41:00,70.9,68.8,29.92,ENE,72,4.0,4.0,93,0.00,,,0.00,Wunderground v.1.15,2013-05-22 11:41:00,
2013-05-22 07:42:00,70.9,68.8,29.92,East,79,4.0,5.0,93,0.00,,,0.00,Wunderground v.1.15,2013-05-22 11:42:00,
2013-05-22 07:43:00,70.9,68.8,29.92,East,80,3.0,5.0,93,0.00,,,0.00,Wunderground v.1.15,2013-05-22 11:43:00,
2013-05-22 07:44:00,70.9,68.8,29.92,East,81,3.0,5.0,93,0.00,,,0.00,Wunderground v.1.15,2013-05-22 11:44:00,
2013-05-22 07:45:00,71.0,68.9,29.92,ENE,68,3.0,5.0,93,0.00,,,0.00,Wunderground v.1.15,2013-05-22 11:45:00,
2013-05-22 07:47:00,71.1,69.0,29.92,ENE,67,3.0,5.0,93,0.00,,,0.00,Wunderground v.1.15,2013-05-22 11:47:00,
2013-05-22 07:48:00,71.1,69.0,29.92,East,86,2.0,5.0,93,0.00,,,0.00,Wunderground v.1.15,2013-05-22 11:48:00,
2013-05-22 07:49:00,71.2,69.1,29.92,ENE,77,3.0,5.0,93,0.00,,,0.00,Wunderground v.1.15,2013-05-22 11:49:00,
2013-05-22 07:50:00,71.2,69.1,29.92,ENE,78,1.0,3.0,93,0.00,,,0.00,Wunderground v.1.15,2013-05-22 11:50:00,
2013-05-22 07:52:00,71.4,69.3,29.92,NE,47,3.0,4.0,93,0.00,,,0.00,Wunderground v.1.15,2013-05-22 11:52:00,
2013-05-22 07:53:00,71.4,69.3,29.92,East,89,3.0,4.0,93,0.00,,,0.00,Wunderground v.1.15,2013-05-22 11:53:00,
2013-05-22 07:54:00,71.4,69.3,29.92,ENE,71,2.0,4.0,93,0.00,,,0.00,Wunderground v.1.15,2013-05-22 11:54:00,
2013-05-22 07:55:00,71.5,69.4,29.92,NE,53,1.0,4.0,93,0.00,,,0.00,Wunderground v.1.15,2013-05-22 11:55:00,
2013-05-22 07:57:00,71.8,69.7,29.92,ENE,78,1.0,4.0,93,0.00,,,0.00,Wunderground v.1.15,2013-05-22 11:57:00,
2013-05-22 07:58:00,71.8,69.7,29.92,ENE,77,3.0,4.0,93,0.00,,,0.00,Wunderground v.1.15,2013-05-22 11:58:00,
2013-05-22 07:59:00,71.9,69.4,29.92,East,85,2.0,4.0,92,0.00,,,0.00,Wunderground v.1.15,2013-05-22 11:59:00,
2013-05-22 08:00:00,72.0,69.5,29.92,ENE,77,2.0,2.0,92,0.00,,,0.00,Wunderground v.1.15,2013-05-22 12:00:00,
2013-05-22 08:02:00,72.1,69.6,29.92,ENE,77,2.0,4.0,92,0.00,,,0.00,Wunderground v.1.15,2013-05-22 12:02:00,
2013-05-22 08:03:00,72.2,69.7,29.92,East,84,3.0,4.0,92,0.00,,,0.00,Wunderground v.1.15,2013-05-22 12:03:00,
2013-05-22 08:04:00,72.2,69.7,29.92,ENE,75,3.0,4.0,92,0.00,,,0.00,Wunderground v.1.15,2013-05-22 12:04:00,
2013-05-22 08:05:00,72.3,69.8,29.92,East,79,2.0,4.0,92,0.00,,,0.00,Wunderground v.1.15,2013-05-22 12:05:00,
2013-05-22 08:06:00,72.4,69.9,29.92,ENE,70,2.0,4.0,92,0.00,,,0.00,Wunderground v.1.15,2013-05-22 12:06:00,
2013-05-22 08:07:00,72.5,70.0,29.93,ENE,72,3.0,4.0,92,0.00,,,0.00,Wunderground v.1.15,2013-05-22 12:07:00,
2013-05-22 08:08:00,72.5,69.7,29.92,East,93,1.0,4.0,91,0.00,,,0.00,Wunderground v.1.15,2013-05-22 12:08:00,
2013-05-22 08:09:00,72.6,69.8,29.92,ENE,65,3.0,3.0,91,0.00,,,0.00,Wunderground v.1.15,2013-05-22 12:09:00,
2013-05-22 08:10:00,72.7,69.9,29.92,ENE,65,3.0,4.0,91,0.00,,,0.00,Wunderground v.1.15,2013-05-22 12:10:00,
2013-05-22 08:11:00,72.7,69.9,29.92,East,80,3.0,4.0,91,0.00,,,0.00,Wunderground v.1.15,2013-05-22 12:11:00,
2013-05-22 08:12:00,72.7,69.9,29.92,ENE,72,3.0,4.0,91,0.00,,,0.00,Wunderground v.1.15,2013-05-22 12:12:00,
2013-05-22 08:13:00,72.8,70.0,29.92,East,82,2.0,4.0,91,0.00,,,0.00,Wunderground v.1.15,2013-05-22 12:13:00,
2013-05-22 08:14:00,72.9,70.1,29.92,East,80,4.0,4.0,91,0.00,,,0.00,Wunderground v.1.15,2013-05-22 12:14:00,
2013-05-22 08:15:00,73.0,70.2,29.92,ENE,75,2.0,4.0,91,0.00,,,0.00,Wunderground v.1.15,2013-05-22 12:15:00,
2013-05-22 08:16:00,73.0,69.9,29.92,ENE,75,2.0,4.0,90,0.00,,,0.00,Wunderground v.1.15,2013-05-22 12:16:00,
2013-05-22 08:17:00,73.1,70.0,29.92,ESE,115,4.0,4.0,90,0.00,,,0.00,Wunderground v.1.15,2013-05-22 12:17:00,
2013-05-22 08:19:00,73.2,70.1,29.92,ESE,112,1.0,4.0,90,0.00,,,0.00,Wunderground v.1.15,2013-05-22 12:19:00,
2013-05-22 08:20:00,73.3,70.5,29.93,East,95,1.0,3.0,91,0.00,,,0.00,Wunderground v.1.15,2013-05-22 12:20:00,
2013-05-22 08:21:00,73.4,70.6,29.92,ENE,77,3.0,3.0,91,0.00,,,0.00,Wunderground v.1.15,2013-05-22 12:21:00,
2013-05-22 08:23:00,73.5,70.4,29.93,ENE,78,2.0,3.0,90,0.00,,,0.00,Wunderground v.1.15,2013-05-22 12:23:00,
2013-05-22 08:24:00,73.6,70.5,29.93,ENE,64,2.0,3.0,90,0.00,,,0.00,Wunderground v.1.15,2013-05-22 12:24:00,
2013-05-22 08:25:00,73.8,70.7,29.93,ENE,71,3.0,3.0,90,0.00,,,0.00,Wunderground v.1.15,2013-05-22 12:25:00,
2013-05-22 08:26:00,73.9,70.8,29.93,ENE,67,3.0,3.0,90,0.00,,,0.00,Wunderground v.1.15,2013-05-22 12:26:00,
2013-05-22 08:27:00,73.9,70.8,29.93,ENE,63,2.0,3.0,90,0.00,,,0.00,Wunderground v.1.15,2013-05-22 12:27:00,
2013-05-22 08:28:00,74.0,70.9,29.93,East,100,1.0,3.0,90,0.00,,,0.00,Wunderground v.1.15,2013-05-22 12:28:00,
2013-05-22 08:29:00,74.1,71.0,29.93,ENE,77,2.0,4.0,90,0.00,,,0.00,Wunderground v.1.15,2013-05-22 12:29:00,
2013-05-22 08:30:00,74.3,70.8,29.93,East,80,2.0,2.0,89,0.00,,,0.00,Wunderground v.1.15,2013-05-22 12:30:00,
2013-05-22 08:31:00,74.3,70.8,29.93,East,97,2.0,3.0,89,0.00,,,0.00,Wunderground v.1.15,2013-05-22 12:31:00,
2013-05-22 08:32:00,74.4,70.9,29.93,East,86,1.0,3.0,89,0.00,,,0.00,Wunderground v.1.15,2013-05-22 12:32:00,
2013-05-22 08:33:00,74.6,71.1,29.92,East,79,2.0,4.0,89,0.00,,,0.00,Wunderground v.1.15,2013-05-22 12:33:00,
2013-05-22 08:34:00,74.7,71.2,29.92,East,89,2.0,4.0,89,0.00,,,0.00,Wunderground v.1.15,2013-05-22 12:34:00,
2013-05-22 08:35:00,74.9,71.4,29.93,SE,134,1.0,4.0,89,0.00,,,0.00,Wunderground v.1.15,2013-05-22 12:35:00,
2013-05-22 08:36:00,74.9,71.4,29.93,ESE,106,1.0,4.0,89,0.00,,,0.00,Wunderground v.1.15,2013-05-22 12:36:00,
2013-05-22 08:37:00,75.1,71.6,29.93,ESE,105,0.0,4.0,89,0.00,,,0.00,Wunderground v.1.15,2013-05-22 12:37:00,
2013-05-22 08:38:00,75.2,71.7,29.92,East,86,2.0,4.0,89,0.00,,,0.00,Wunderground v.1.15,2013-05-22 12:38:00,
2013-05-22 08:39:00,75.3,71.5,29.93,ESE,120,3.0,4.0,88,0.00,,,0.00,Wunderground v.1.15,2013-05-22 12:39:00,
2013-05-22 08:41:00,75.5,71.7,29.93,ENE,72,1.0,3.0,88,0.00,,,0.00,Wunderground v.1.15,2013-05-22 12:41:00,
2013-05-22 08:42:00,75.7,71.9,29.93,ESE,102,2.0,3.0,88,0.00,,,0.00,Wunderground v.1.15,2013-05-22 12:42:00,
2013-05-22 08:43:00,75.9,72.1,29.93,ENE,75,3.0,5.0,88,0.00,,,0.00,Wunderground v.1.15,2013-05-22 12:43:00,
2013-05-22 08:44:00,75.9,71.8,29.93,ENE,72,2.0,5.0,87,0.00,,,0.00,Wunderground v.1.15,2013-05-22 12:44:00,
2013-05-22 08:46:00,76.1,72.3,29.93,SE,135,3.0,5.0,88,0.00,,,0.00,Wunderground v.1.15,2013-05-22 12:46:00,
2013-05-22 08:47:00,76.3,72.1,29.93,ESE,111,1.0,5.0,87,0.00,,,0.00,Wunderground v.1.15,2013-05-22 12:47:00,
2013-05-22 08:48:00,76.5,72.3,29.93,ESE,119,2.0,5.0,87,0.00,,,0.00,Wunderground v.1.15,2013-05-22 12:48:00,
2013-05-22 08:49:00,76.6,72.4,29.93,NE,49,1.0,5.0,87,0.00,,,0.00,Wunderground v.1.15,2013-05-22 12:49:00,
2013-05-22 08:51:00,76.9,72.7,29.93,ESE,105,2.0,4.0,87,0.00,,,0.00,Wunderground v.1.15,2013-05-22 12:51:00,
2013-05-22 08:52:00,77.0,72.5,29.93,ENE,78,2.0,4.0,86,0.00,,,0.00,Wunderground v.1.15,2013-05-22 12:52:00,
2013-05-22 08:53:00,77.1,72.6,29.93,SE,134,2.0,4.0,86,0.00,,,0.00,Wunderground v.1.15,2013-05-22 12:53:00,
2013-05-22 08:54:00,77.2,72.7,29.93,East,92,2.0,4.0,86,0.00,,,0.00,Wunderground v.1.15,2013-05-22 12:54:00,
2013-05-22 08:56:00,77.4,72.9,29.93,East,82,2.0,4.0,86,0.00,,,0.00,Wunderground v.1.15,2013-05-22 12:56:00,
2013-05-22 08:58:00,77.4,72.5,29.93,ESE,105,5.0,6.0,85,0.00,,,0.00,Wunderground v.1.15,2013-05-22 12:58:00,
2013-05-22 08:59:00,77.4,72.5,29.93,ESE,109,3.0,6.0,85,0.00,,,0.00,Wunderground v.1.15,2013-05-22 12:59:00,
2013-05-22 09:01:00,77.4,72.5,29.93,SE,132,1.0,4.0,85,0.00,,,0.00,Wunderground v.1.15,2013-05-22 13:01:00,
2013-05-22 09:02:00,77.4,72.5,29.93,SE,133,0.0,4.0,85,0.00,,,0.00,Wunderground v.1.15,2013-05-22 13:02:00,
2013-05-22 09:03:00,77.6,73.1,29.93,SE,129,3.0,4.0,86,0.00,,,0.00,Wunderground v.1.15,2013-05-22 13:03:00,
2013-05-22 09:04:00,77.6,72.7,29.93,SSE,159,1.0,4.0,85,0.00,,,0.00,Wunderground v.1.15,2013-05-22 13:04:00,
2013-05-22 09:05:00,77.7,72.8,29.93,SSE,158,0.0,4.0,85,0.00,,,0.00,Wunderground v.1.15,2013-05-22 13:05:00,
2013-05-22 09:06:00,78.0,73.1,29.93,SE,139,0.0,4.0,85,0.00,,,0.00,Wunderground v.1.15,2013-05-22 13:06:00,
2013-05-22 09:07:00,78.1,73.2,29.93,East,82,1.0,4.0,85,0.00,,,0.00,Wunderground v.1.15,2013-05-22 13:07:00,
2013-05-22 09:08:00,78.4,73.2,29.93,East,96,2.0,4.0,84,0.00,,,0.00,Wunderground v.1.15,2013-05-22 13:08:00,
2013-05-22 09:09:00,78.4,73.2,29.93,ESE,103,4.0,6.0,84,0.00,,,0.00,Wunderground v.1.15,2013-05-22 13:09:00,
2013-05-22 09:10:00,78.4,72.8,29.93,East,100,4.0,6.0,83,0.00,,,0.00,Wunderground v.1.15,2013-05-22 13:10:00,
2013-05-22 09:12:00,78.4,73.2,29.93,ESE,111,4.0,6.0,84,0.00,,,0.00,Wunderground v.1.15,2013-05-22 13:12:00,
2013-05-22 09:13:00,78.3,72.7,29.93,SSE,155,2.0,6.0,83,0.00,,,0.00,Wunderground v.1.15,2013-05-22 13:13:00,
2013-05-22 09:14:00,78.4,73.2,29.93,SE,128,1.0,6.0,84,0.00,,,0.00,Wunderground v.1.15,2013-05-22 13:14:00,
2013-05-22 09:15:00,78.4,73.2,29.93,SSE,151,2.0,6.0,84,0.00,,,0.00,Wunderground v.1.15,2013-05-22 13:15:00,
2013-05-22 09:17:00,78.8,73.6,29.93,South,175,2.0,6.0,84,0.00,,,0.00,Wunderground v.1.15,2013-05-22 13:17:00,
2013-05-22 09:18:00,79.0,73.7,29.93,SSE,158,4.0,6.0,84,0.00,,,0.00,Wunderground v.1.15,2013-05-22 13:18:00,
2013-05-22 09:19:00,79.1,73.5,29.93,SE,143,3.0,6.0,83,0.00,,,0.00,Wunderground v.1.15,2013-05-22 13:19:00,
2013-05-22 09:20:00,79.2,73.6,29.93,ESE,109,3.0,3.0,83,0.00,,,0.00,Wunderground v.1.15,2013-05-22 13:20:00,
2013-05-22 09:22:00,79.3,73.3,29.94,SW,217,2.0,5.0,82,0.00,,,0.00,Wunderground v.1.15,2013-05-22 13:22:00,
2013-05-22 09:23:00,79.3,73.3,29.94,ESE,118,3.0,5.0,82,0.00,,,0.00,Wunderground v.1.15,2013-05-22 13:23:00,
2013-05-22 09:24:00,79.2,73.2,29.93,ENE,68,3.0,5.0,82,0.00,,,0.00,Wunderground v.1.15,2013-05-22 13:24:00,
2013-05-22 09:25:00,79.2,73.2,29.93,ESE,108,1.0,5.0,82,0.00,,,0.00,Wunderground v.1.15,2013-05-22 13:25:00,
2013-05-22 09:27:00,79.2,73.6,29.94,East,100,4.0,5.0,83,0.00,,,0.00,Wunderground v.1.15,2013-05-22 13:27:00,
2013-05-22 09:28:00,79.3,73.7,29.94,East,86,3.0,5.0,83,0.00,,,0.00,Wunderground v.1.15,2013-05-22 13:28:00,
2013-05-22 09:29:00,79.2,73.2,29.94,SE,143,1.0,5.0,82,0.00,,,0.00,Wunderground v.1.15,2013-05-22 13:29:00,
2013-05-22 09:30:00,79.2,73.2,29.94,SSE,147,1.0,3.0,82,0.00,,,0.00,Wunderground v.1.15,2013-05-22 13:30:00,
2013-05-22 09:33:00,79.6,74.0,29.94,South,173,0.0,3.0,83,0.00,,,0.00,Wunderground v.1.15,2013-05-22 13:33:00,
2013-05-22 09:35:00,80.0,74.0,29.94,East,83,2.0,3.0,82,0.00,,,0.00,Wunderground v.1.15,2013-05-22 13:35:00,
2013-05-22 09:38:00,80.4,74.0,29.94,SSW,205,5.0,5.0,81,0.00,,,0.00,Wunderground v.1.15,2013-05-22 13:38:00,
2013-05-22 09:40:00,80.3,73.6,29.94,South,191,1.0,3.0,80,0.00,,,0.00,Wunderground v.1.15,2013-05-22 13:40:00,
2013-05-22 09:43:00,80.3,73.9,29.94,SSW,204,2.0,4.0,81,0.00,,,0.00,Wunderground v.1.15,2013-05-22 13:43:00,
2013-05-22 09:45:00,80.2,73.5,29.94,ESE,121,3.0,4.0,80,0.00,,,0.00,Wunderground v.1.15,2013-05-22 13:45:00,
2013-05-22 09:46:00,80.1,73.7,29.94,WSW,248,3.0,4.0,81,0.00,,,0.00,Wunderground v.1.15,2013-05-22 13:46:00,
2013-05-22 09:48:00,80.0,73.6,29.94,WSW,253,1.0,6.0,81,0.00,,,0.00,Wunderground v.1.15,2013-05-22 13:48:00,
2013-05-22 09:49:00,80.0,73.6,29.94,SW,225,1.0,6.0,81,0.00,,,0.00,Wunderground v.1.15,2013-05-22 13:49:00,
2013-05-22 09:50:00,80.1,74.1,29.94,SSW,200,5.0,5.0,82,0.00,,,0.00,Wunderground v.1.15,2013-05-22 13:50:00,
2013-05-22 09:51:00,80.1,73.7,29.94,SSW,200,3.0,6.0,81,0.00,,,0.00,Wunderground v.1.15,2013-05-22 13:51:00,
2013-05-22 09:53:00,79.9,73.5,29.94,South,184,2.0,6.0,81,0.00,,,0.00,Wunderground v.1.15,2013-05-22 13:53:00,
2013-05-22 09:55:00,80.0,73.6,29.94,SE,125,4.0,6.0,81,0.00,,,0.00,Wunderground v.1.15,2013-05-22 13:55:00,
2013-05-22 09:56:00,80.1,73.7,29.94,SW,217,6.0,6.0,81,0.00,,,0.00,Wunderground v.1.15,2013-05-22 13:56:00,
2013-05-22 09:58:00,80.1,73.7,29.94,SSE,163,1.0,6.0,81,0.00,,,0.00,Wunderground v.1.15,2013-05-22 13:58:00,
2013-05-22 09:59:00,80.1,73.7,29.94,SSE,163,1.0,6.0,81,0.00,,,0.00,Wunderground v.1.15,2013-05-22 13:59:00,
2013-05-22 10:01:00,80.1,73.7,29.94,SSW,200,2.0,4.0,81,0.00,,,0.00,Wunderground v.1.15,2013-05-22 14:01:00,
2013-05-22 10:02:00,80.1,73.4,29.94,SSW,199,2.0,4.0,80,0.00,,,0.00,Wunderground v.1.15,2013-05-22 14:02:00,
2013-05-22 10:04:00,80.2,73.5,29.94,South,184,1.0,4.0,80,0.00,,,0.00,Wunderground v.1.15,2013-05-22 14:04:00,
2013-05-22 10:06:00,80.3,73.6,29.94,WSW,252,4.0,5.0,80,0.00,,,0.00,Wunderground v.1.15,2013-05-22 14:06:00,
2013-05-22 10:07:00,80.3,73.6,29.94,West,277,2.0,5.0,80,0.00,,,0.00,Wunderground v.1.15,2013-05-22 14:07:00,
2013-05-22 10:09:00,80.4,73.7,29.94,WSW,250,3.0,5.0,80,0.00,,,0.00,Wunderground v.1.15,2013-05-22 14:09:00,
2013-05-22 10:11:00,80.2,73.1,29.94,SSW,207,4.0,4.0,79,0.00,,,0.00,Wunderground v.1.15,2013-05-22 14:11:00,
2013-05-22 10:12:00,80.1,73.0,29.94,South,174,4.0,6.0,79,0.00,,,0.00,Wunderground v.1.15,2013-05-22 14:12:00,
2013-05-22 10:14:00,80.0,73.3,29.94,SSW,198,3.0,6.0,80,0.00,,,0.00,Wunderground v.1.15,2013-05-22 14:14:00,
2013-05-22 10:16:00,79.9,72.8,29.94,SSW,205,2.0,6.0,79,0.00,,,0.00,Wunderground v.1.15,2013-05-22 14:16:00,
2013-05-22 10:17:00,79.9,73.2,29.94,SW,233,4.0,6.0,80,0.00,,,0.00,Wunderground v.1.15,2013-05-22 14:17:00,
2013-05-22 10:19:00,79.8,73.4,29.94,WSW,241,3.0,6.0,81,0.00,,,0.00,Wunderground v.1.15,2013-05-22 14:19:00,
2013-05-22 10:20:00,79.7,73.0,29.94,SW,229,4.0,6.0,80,0.00,,,0.00,Wunderground v.1.15,2013-05-22 14:20:00,
2013-05-22 10:21:00,79.6,72.5,29.94,SW,229,2.0,6.0,79,0.00,,,0.00,Wunderground v.1.15,2013-05-22 14:21:00,
2013-05-22 10:22:00,79.5,72.8,29.95,SW,236,4.0,6.0,80,0.00,,,0.00,Wunderground v.1.15,2013-05-22 14:22:00,
2013-05-22 10:24:00,79.3,72.6,29.95,SSW,205,3.0,6.0,80,0.00,,,0.00,Wunderground v.1.15,2013-05-22 14:24:00,
2013-05-22 10:25:00,79.3,73.0,29.94,SW,225,0.0,6.0,81,0.00,,,0.00,Wunderground v.1.15,2013-05-22 14:25:00,
2013-05-22 10:26:00,79.2,72.5,29.94,SW,229,2.0,6.0,80,0.00,,,0.00,Wunderground v.1.15,2013-05-22 14:26:00,
2013-05-22 10:27:00,79.2,72.9,29.95,SW,235,1.0,6.0,81,0.00,,,0.00,Wunderground v.1.15,2013-05-22 14:27:00,
2013-05-22 10:29:00,79.2,72.5,29.94,South,191,2.0,6.0,80,0.00,,,0.00,Wunderground v.1.15,2013-05-22 14:29:00,
2013-05-22 10:30:00,79.2,72.5,29.95,SSW,212,1.0,3.0,80,0.00,,,0.00,Wunderground v.1.15,2013-05-22 14:30:00,
2013-05-22 10:31:00,79.3,72.6,29.94,SSW,193,1.0,3.0,80,0.00,,,0.00,Wunderground v.1.15,2013-05-22 14:31:00,
2013-05-22 10:33:00,79.4,73.1,29.94,SE,128,3.0,3.0,81,0.00,,,0.00,Wunderground v.1.15,2013-05-22 14:33:00,
2013-05-22 10:34:00,79.7,73.3,29.94,SSW,203,0.0,5.0,81,0.00,,,0.00,Wunderground v.1.15,2013-05-22 14:34:00,
2013-05-22 10:35:00,79.8,73.4,29.94,East,100,1.0,5.0,81,0.00,,,0.00,Wunderground v.1.15,2013-05-22 14:35:00,
2013-05-22 10:36:00,80.0,73.3,29.94,East,87,1.0,5.0,80,0.00,,,0.00,Wunderground v.1.15,2013-05-22 14:36:00,
2013-05-22 10:37:00,80.1,73.4,29.94,East,87,0.0,5.0,80,0.00,,,0.00,Wunderground v.1.15,2013-05-22 14:37:00,
2013-05-22 10:38:00,80.3,73.6,29.94,South,169,1.0,5.0,80,0.00,,,0.00,Wunderground v.1.15,2013-05-22 14:38:00,
2013-05-22 10:39:00,80.5,73.8,29.95,SSW,200,1.0,5.0,80,0.00,,,0.00,Wunderground v.1.15,2013-05-22 14:39:00,
2013-05-22 10:41:00,80.8,73.7,29.95,SSW,211,1.0,6.0,79,0.00,,,0.00,Wunderground v.1.15,2013-05-22 14:41:00,
2013-05-22 10:42:00,81.0,73.9,29.95,SE,127,2.0,6.0,79,0.00,,,0.00,Wunderground v.1.15,2013-05-22 14:42:00,
2013-05-22 10:44:00,81.4,73.9,29.95,SSE,151,1.0,6.0,78,0.00,,,0.00,Wunderground v.1.15,2013-05-22 14:44:00,
2013-05-22 10:45:00,81.7,74.2,29.94,SSW,203,4.0,6.0,78,0.00,,,0.00,Wunderground v.1.15,2013-05-22 14:45:00,
2013-05-22 10:46:00,81.9,73.6,29.95,South,190,5.0,6.0,76,0.00,,,0.00,Wunderground v.1.15,2013-05-22 14:46:00,
2013-05-22 10:47:00,82.0,73.7,29.95,SW,233,2.0,6.0,76,0.00,,,0.00,Wunderground v.1.15,2013-05-22 14:47:00,
2013-05-22 10:49:00,82.1,73.8,29.95,WSW,256,3.0,6.0,76,0.00,,,0.00,Wunderground v.1.15,2013-05-22 14:49:00,
2013-05-22 10:50:00,82.3,74.0,29.95,ESE,113,1.0,3.0,76,0.00,,,0.00,Wunderground v.1.15,2013-05-22 14:50:00,
2013-05-22 10:51:00,82.4,73.7,29.95,SSW,200,2.0,4.0,75,0.00,,,0.00,Wunderground v.1.15,2013-05-22 14:51:00,
2013-05-22 10:52:00,82.6,73.9,29.95,WNW,283,4.0,4.0,75,0.00,,,0.00,Wunderground v.1.15,2013-05-22 14:52:00,
2013-05-22 10:54:00,82.8,74.5,29.95,West,274,2.0,5.0,76,0.00,,,0.00,Wunderground v.1.15,2013-05-22 14:54:00,
2013-05-22 10:55:00,82.9,74.6,29.95,West,259,1.0,5.0,76,0.00,,,0.00,Wunderground v.1.15,2013-05-22 14:55:00,
2013-05-22 10:56:00,83.2,74.0,29.95,West,276,5.0,7.0,74,0.00,,,0.00,Wunderground v.1.15,2013-05-22 14:56:00,
2013-05-22 10:57:00,83.1,73.9,29.95,SW,236,7.0,7.0,74,0.00,,,0.00,Wunderground v.1.15,2013-05-22 14:57:00,
2013-05-22 10:58:00,83.0,73.4,29.95,WSW,238,7.0,8.0,73,0.00,,,0.00,Wunderground v.1.15,2013-05-22 14:58:00,
2013-05-22 11:00:00,82.7,73.6,29.95,West,262,5.0,6.0,74,0.00,,,0.00,Wunderground v.1.15,2013-05-22 15:00:00,
2013-05-22 11:01:00,82.2,73.5,29.95,WSW,245,5.0,8.0,75,0.00,,,0.00,Wunderground v.1.15,2013-05-22 15:01:00,
2013-05-22 11:03:00,82.0,73.7,29.95,WSW,249,4.0,8.0,76,0.00,,,0.00,Wunderground v.1.15,2013-05-22 15:03:00,
2013-05-22 11:05:00,81.9,74.0,29.95,WNW,285,2.0,8.0,77,0.00,,,0.00,Wunderground v.1.15,2013-05-22 15:05:00,
2013-05-22 11:07:00,82.0,73.7,29.95,WNW,285,2.0,8.0,76,0.00,,,0.00,Wunderground v.1.15,2013-05-22 15:07:00,
2013-05-22 11:08:00,81.9,73.6,29.95,SW,214,4.0,8.0,76,0.00,,,0.00,Wunderground v.1.15,2013-05-22 15:08:00,
2013-05-22 11:09:00,81.9,73.6,29.95,SW,222,3.0,8.0,76,0.00,,,0.00,Wunderground v.1.15,2013-05-22 15:09:00,
2013-05-22 11:10:00,81.8,73.9,29.95,SW,229,6.0,8.0,77,0.00,,,0.00,Wunderground v.1.15,2013-05-22 15:10:00,
2013-05-22 11:12:00,81.7,73.8,29.95,WSW,239,1.0,8.0,77,0.00,,,0.00,Wunderground v.1.15,2013-05-22 15:12:00,
2013-05-22 11:13:00,81.7,73.8,29.95,SW,233,5.0,8.0,77,0.00,,,0.00,Wunderground v.1.15,2013-05-22 15:13:00,
2013-05-22 11:14:00,81.6,73.7,29.95,WSW,252,6.0,8.0,77,0.00,,,0.00,Wunderground v.1.15,2013-05-22 15:14:00,
2013-05-22 11:15:00,81.6,73.7,29.95,SW,236,9.0,9.0,77,0.00,,,0.00,Wunderground v.1.15,2013-05-22 15:15:00,
2013-05-22 11:17:00,81.4,73.9,29.95,WSW,246,5.0,9.0,78,0.00,,,0.00,Wunderground v.1.15,2013-05-22 15:17:00,
2013-05-22 11:19:00,81.6,74.1,29.95,SW,233,9.0,9.0,78,0.00,,,0.00,Wunderground v.1.15,2013-05-22 15:19:00,
2013-05-22 11:20:00,81.5,73.6,29.96,SW,233,7.0,9.0,77,0.00,,,0.00,Wunderground v.1.15,2013-05-22 15:20:00,
2013-05-22 11:22:00,81.3,74.2,29.95,WSW,241,4.0,9.0,79,0.00,,,0.00,Wunderground v.1.15,2013-05-22 15:22:00,
2013-05-22 11:23:00,81.3,74.2,29.96,West,281,6.0,9.0,79,0.00,,,0.00,Wunderground v.1.15,2013-05-22 15:23:00,
2013-05-22 11:24:00,81.4,73.9,29.96,WNW,295,7.0,9.0,78,0.00,,,0.00,Wunderground v.1.15,2013-05-22 15:24:00,
2013-05-22 11:25:00,81.4,73.9,29.96,WNW,291,4.0,9.0,78,0.00,,,0.00,Wunderground v.1.15,2013-05-22 15:25:00,
2013-05-22 11:27:00,81.4,74.3,29.96,WNW,302,2.0,10.0,79,0.00,,,0.00,Wunderground v.1.15,2013-05-22 15:27:00,
2013-05-22 11:28:00,81.5,74.4,29.96,SW,229,3.0,10.0,79,0.00,,,0.00,Wunderground v.1.15,2013-05-22 15:28:00,
2013-05-22 11:29:00,81.6,73.7,29.96,West,267,7.0,10.0,77,0.00,,,0.00,Wunderground v.1.15,2013-05-22 15:29:00,
2013-05-22 11:30:00,81.5,73.6,29.96,WNW,298,3.0,6.0,77,0.00,,,0.00,Wunderground v.1.15,2013-05-22 15:30:00,
2013-05-22 11:32:00,81.5,74.4,29.96,West,264,3.0,10.0,79,0.00,,,0.00,Wunderground v.1.15,2013-05-22 15:32:00,
2013-05-22 11:33:00,81.6,74.1,29.96,WSW,257,5.0,10.0,78,0.00,,,0.00,Wunderground v.1.15,2013-05-22 15:33:00,
2013-05-22 11:34:00,81.9,74.4,29.96,West,280,3.0,10.0,78,0.00,,,0.00,Wunderground v.1.15,2013-05-22 15:34:00,
2013-05-22 11:35:00,82.0,74.5,29.96,West,269,2.0,10.0,78,0.00,,,0.00,Wunderground v.1.15,2013-05-22 15:35:00,
2013-05-22 11:37:00,82.4,74.8,29.96,WNW,282,7.0,10.0,78,0.00,,,0.00,Wunderground v.1.15,2013-05-22 15:37:00,
2013-05-22 11:38:00,82.4,74.1,29.96,West,278,5.0,10.0,76,0.00,,,0.00,Wunderground v.1.15,2013-05-22 15:38:00,
2013-05-22 11:39:00,82.3,74.4,29.96,West,269,5.0,6.0,77,0.00,,,0.00,Wunderground v.1.15,2013-05-22 15:39:00,
2013-05-22 11:40:00,82.3,74.7,29.96,WSW,255,3.0,6.0,78,0.00,,,0.00,Wunderground v.1.15,2013-05-22 15:40:00,
2013-05-22 11:43:00,82.7,74.8,29.96,West,259,6.0,6.0,77,0.00,,,0.00,Wunderground v.1.15,2013-05-22 15:43:00,
2013-05-22 11:44:00,82.9,74.9,29.96,West,267,2.0,6.0,77,0.00,,,0.00,Wunderground v.1.15,2013-05-22 15:44:00,
2013-05-22 11:45:00,82.9,74.9,29.96,WSW,247,5.0,8.0,77,0.00,,,0.00,Wunderground v.1.15,2013-05-22 15:45:00,
2013-05-22 11:46:00,82.7,73.6,29.96,WSW,249,5.0,8.0,74,0.00,,,0.00,Wunderground v.1.15,2013-05-22 15:46:00,
2013-05-22 11:48:00,82.5,74.6,29.95,WSW,257,2.0,8.0,77,0.00,,,0.00,Wunderground v.1.15,2013-05-22 15:48:00,
2013-05-22 11:49:00,82.4,74.1,29.96,West,270,2.0,4.0,76,0.00,,,0.00,Wunderground v.1.15,2013-05-22 15:49:00,
2013-05-22 11:50:00,82.3,74.0,29.96,WNW,283,4.0,4.0,76,0.00,,,0.00,Wunderground v.1.15,2013-05-22 15:50:00,
2013-05-22 11:51:00,82.3,74.4,29.95,WSW,257,3.0,7.0,77,0.00,,,0.00,Wunderground v.1.15,2013-05-22 15:51:00,
2013-05-22 11:53:00,82.3,74.7,29.95,WNW,283,5.0,7.0,78,0.00,,,0.00,Wunderground v.1.15,2013-05-22 15:53:00,
2013-05-22 11:55:00,82.4,74.5,29.95,West,281,6.0,10.0,77,0.00,,,0.00,Wunderground v.1.15,2013-05-22 15:55:00,
2013-05-22 11:56:00,82.5,74.9,29.95,WSW,252,4.0,10.0,78,0.00,,,0.00,Wunderground v.1.15,2013-05-22 15:56:00,
2013-05-22 11:58:00,82.5,74.6,29.95,West,260,4.0,10.0,77,0.00,,,0.00,Wunderground v.1.15,2013-05-22 15:58:00,
2013-05-22 12:00:00,82.5,74.6,29.95,WNW,282,7.0,8.0,77,0.00,,,0.00,Wunderground v.1.15,2013-05-22 16:00:00,
2013-05-22 12:01:00,82.2,74.3,29.96,West,269,3.0,8.0,77,0.00,,,0.00,Wunderground v.1.15,2013-05-22 16:01:00,
2013-05-22 12:02:00,82.2,74.3,29.96,WNW,291,6.0,8.0,77,0.00,,,0.00,Wunderground v.1.15,2013-05-22 16:02:00,
2013-05-22 12:03:00,82.0,74.1,29.96,WNW,288,5.0,8.0,77,0.00,,,0.00,Wunderground v.1.15,2013-05-22 16:03:00,
2013-05-22 12:05:00,81.8,73.9,29.96,West,276,6.0,8.0,77,0.00,,,0.00,Wunderground v.1.15,2013-05-22 16:05:00,
2013-05-22 12:06:00,81.8,74.3,29.96,WSW,247,6.0,8.0,78,0.00,,,0.00,Wunderground v.1.15,2013-05-22 16:06:00,
2013-05-22 12:07:00,81.8,74.3,29.96,WNW,285,7.0,9.0,78,0.00,,,0.00,Wunderground v.1.15,2013-05-22 16:07:00,
2013-05-22 12:08:00,81.8,74.3,29.96,NW,326,5.0,9.0,78,0.00,,,0.00,Wunderground v.1.15,2013-05-22 16:08:00,
2013-05-22 12:10:00,81.9,74.7,29.96,West,278,8.0,8.0,79,0.00,,,0.00,Wunderground v.1.15,2013-05-22 16:10:00,
2013-05-22 12:11:00,82.0,74.8,29.96,West,270,3.0,8.0,79,0.00,,,0.00,Wunderground v.1.15,2013-05-22 16:11:00,
2013-05-22 12:12:00,82.3,74.7,29.96,SW,221,4.0,8.0,78,0.00,,,0.00,Wunderground v.1.15,2013-05-22 16:12:00,
2013-05-22 12:14:00,82.5,74.6,29.96,WSW,239,6.0,8.0,77,0.00,,,0.00,Wunderground v.1.15,2013-05-22 16:14:00,
2013-05-22 12:15:00,82.4,74.1,29.96,SW,222,8.0,10.0,76,0.00,,,0.00,Wunderground v.1.15,2013-05-22 16:15:00,
2013-05-22 12:16:00,82.4,74.1,29.96,West,278,7.0,10.0,76,0.00,,,0.00,Wunderground v.1.15,2013-05-22 16:16:00,
2013-05-22 12:18:00,82.1,73.8,29.96,WSW,246,6.0,10.0,76,0.00,,,0.00,Wunderground v.1.15,2013-05-22 16:18:00,
2013-05-22 12:19:00,81.9,74.4,29.96,SW,229,9.0,10.0,78,0.00,,,0.00,Wunderground v.1.15,2013-05-22 16:19:00,
2013-05-22 12:20:00,81.8,75.0,29.96,West,265,4.0,7.0,80,0.00,,,0.00,Wunderground v.1.15,2013-05-22 16:20:00,
2013-05-22 12:21:00,81.9,75.1,29.96,West,271,9.0,9.0,80,0.00,,,0.00,Wunderground v.1.15,2013-05-22 16:21:00,
2013-05-22 12:23:00,81.8,74.3,29.96,West,267,6.0,9.0,78,0.00,,,0.00,Wunderground v.1.15,2013-05-22 16:23:00,
2013-05-22 12:24:00,81.7,74.2,29.96,WSW,249,5.0,9.0,78,0.00,,,0.00,Wunderground v.1.15,2013-05-22 16:24:00,
2013-05-22 12:26:00,81.6,74.5,29.96,West,278,6.0,9.0,79,0.00,,,0.00,Wunderground v.1.15,2013-05-22 16:26:00,
2013-05-22 12:27:00,81.7,74.5,29.96,WNW,300,4.0,9.0,79,0.00,,,0.00,Wunderground v.1.15,2013-05-22 16:27:00,
2013-05-22 12:28:00,81.7,74.5,29.96,West,276,3.0,9.0,79,0.00,,,0.00,Wunderground v.1.15,2013-05-22 16:28:00,
2013-05-22 12:29:00,81.9,74.7,29.96,West,270,3.0,5.0,79,0.00,,,0.00,Wunderground v.1.15,2013-05-22 16:29:00,
2013-05-22 12:32:00,82.4,74.8,29.96,West,270,5.0,8.0,78,0.00,,,0.00,Wunderground v.1.15,2013-05-22 16:32:00,
2013-05-22 12:33:00,82.1,74.2,29.96,WSW,242,5.0,9.0,77,0.00,,,0.00,Wunderground v.1.15,2013-05-22 16:33:00,
2013-05-22 12:35:00,82.0,74.5,29.96,WSW,239,5.0,9.0,78,0.00,,,0.00,Wunderground v.1.15,2013-05-22 16:35:00,
2013-05-22 12:37:00,81.9,74.4,29.96,West,265,2.0,11.0,78,0.00,,,0.00,Wunderground v.1.15,2013-05-22 16:37:00,
2013-05-22 12:39:00,81.8,74.3,29.96,SW,215,8.0,11.0,78,0.00,,,0.00,Wunderground v.1.15,2013-05-22 16:39:00,
2013-05-22 12:40:00,81.7,74.2,29.95,SW,233,6.0,7.0,78,0.00,,,0.00,Wunderground v.1.15,2013-05-22 16:40:00,
2013-05-22 12:42:00,81.9,74.4,29.95,WSW,255,7.0,9.0,78,0.00,,,0.00,Wunderground v.1.15,2013-05-22 16:42:00,
2013-05-22 12:45:00,81.9,74.0,29.95,WSW,257,3.0,12.0,77,0.00,,,0.00,Wunderground v.1.15,2013-05-22 16:45:00,
2013-05-22 12:47:00,82.2,74.3,29.95,West,269,8.0,12.0,77,0.00,,,0.00,Wunderground v.1.15,2013-05-22 16:47:00,
2013-05-22 12:50:00,81.9,74.0,29.95,West,280,3.0,8.0,77,0.00,,,0.00,Wunderground v.1.15,2013-05-22 16:50:00,
2013-05-22 12:52:00,81.9,74.0,29.95,SW,233,5.0,9.0,77,0.00,,,0.00,Wunderground v.1.15,2013-05-22 16:52:00,
2013-05-22 12:53:00,81.8,73.9,29.95,WSW,247,7.0,9.0,77,0.00,,,0.00,Wunderground v.1.15,2013-05-22 16:53:00,
2013-05-22 12:55:00,81.6,74.1,29.95,SW,229,6.0,11.0,78,0.00,,,0.00,Wunderground v.1.15,2013-05-22 16:55:00,
2013-05-22 12:57:00,81.6,74.1,29.95,WNW,291,6.0,11.0,78,0.00,,,0.00,Wunderground v.1.15,2013-05-22 16:57:00,
2013-05-22 12:58:00,81.6,74.5,29.95,West,266,7.0,11.0,79,0.00,,,0.00,Wunderground v.1.15,2013-05-22 16:58:00,
2013-05-22 13:00:00,81.7,74.5,29.94,WNW,283,5.0,9.0,79,0.00,,,0.00,Wunderground v.1.15,2013-05-22 17:00:00,
2013-05-22 13:02:00,81.8,74.6,29.94,NW,312,4.0,9.0,79,0.00,,,0.00,Wunderground v.1.15,2013-05-22 17:02:00,
2013-05-22 13:03:00,82.0,74.8,29.94,West,262,8.0,11.0,79,0.00,,,0.00,Wunderground v.1.15,2013-05-22 17:03:00,
2013-05-22 13:06:00,81.9,74.0,29.94,SSW,200,1.0,11.0,77,0.00,,,0.00,Wunderground v.1.15,2013-05-22 17:06:00,
2013-05-22 13:07:00,81.9,74.7,29.94,West,265,7.0,11.0,79,0.00,,,0.00,Wunderground v.1.15,2013-05-22 17:07:00,
2013-05-22 13:08:00,81.9,74.7,29.94,SW,226,6.0,11.0,79,0.00,,,0.00,Wunderground v.1.15,2013-05-22 17:08:00,
2013-05-22 13:11:00,81.9,74.4,29.94,SW,228,7.0,7.0,78,0.00,,,0.00,Wunderground v.1.15,2013-05-22 17:11:00,
2013-05-22 13:12:00,81.7,74.2,29.94,West,274,3.0,10.0,78,0.00,,,0.00,Wunderground v.1.15,2013-05-22 17:12:00,
2013-05-22 13:13:00,81.7,74.2,29.94,West,263,6.0,10.0,78,0.00,,,0.00,Wunderground v.1.15,2013-05-22 17:13:00,
2013-05-22 13:14:00,81.7,74.5,29.94,West,280,10.0,10.0,79,0.00,,,0.00,Wunderground v.1.15,2013-05-22 17:14:00,
2013-05-22 13:16:00,81.6,74.1,29.94,West,266,6.0,11.0,78,0.00,,,0.00,Wunderground v.1.15,2013-05-22 17:16:00,
2013-05-22 13:17:00,81.6,74.5,29.94,WNW,285,3.0,11.0,79,0.00,,,0.00,Wunderground v.1.15,2013-05-22 17:17:00,
2013-05-22 13:18:00,81.6,74.5,29.94,WNW,302,4.0,11.0,79,0.00,,,0.00,Wunderground v.1.15,2013-05-22 17:18:00,
2013-05-22 13:20:00,81.7,74.5,29.94,West,274,5.0,8.0,79,0.00,,,0.00,Wunderground v.1.15,2013-05-22 17:20:00,
2013-05-22 13:21:00,81.8,74.6,29.94,West,273,6.0,8.0,79,0.00,,,0.00,Wunderground v.1.15,2013-05-22 17:21:00,
2013-05-22 13:23:00,81.8,74.6,29.94,West,271,5.0,8.0,79,0.00,,,0.00,Wunderground v.1.15,2013-05-22 17:23:00,
2013-05-22 13:25:00,82.0,75.2,29.94,West,262,4.0,8.0,80,0.00,,,0.00,Wunderground v.1.15,2013-05-22 17:25:00,
2013-05-22 13:26:00,82.2,74.7,29.94,WNW,284,4.0,10.0,78,0.00,,,0.00,Wunderground v.1.15,2013-05-22 17:26:00,
2013-05-22 13:27:00,82.2,74.3,29.94,WNW,302,6.0,11.0,77,0.00,,,0.00,Wunderground v.1.15,2013-05-22 17:27:00,
2013-05-22 13:28:00,82.1,74.2,29.94,WNW,289,10.0,11.0,77,0.00,,,0.00,Wunderground v.1.15,2013-05-22 17:28:00,
2013-05-22 13:30:00,81.8,74.3,29.94,West,280,7.0,10.0,78,0.00,,,0.00,Wunderground v.1.15,2013-05-22 17:30:00,
2013-05-22 13:31:00,81.7,74.2,29.94,NW,304,6.0,10.0,78,0.00,,,0.00,Wunderground v.1.15,2013-05-22 17:31:00,
2013-05-22 13:32:00,81.7,74.2,29.94,West,269,4.0,10.0,78,0.00,,,0.00,Wunderground v.1.15,2013-05-22 17:32:00,
2013-05-22 13:33:00,81.6,74.1,29.94,WNW,284,6.0,10.0,78,0.00,,,0.00,Wunderground v.1.15,2013-05-22 17:33:00,
2013-05-22 13:35:00,81.7,74.2,29.94,SW,235,7.0,11.0,78,0.00,,,0.00,Wunderground v.1.15,2013-05-22 17:35:00,
2013-05-22 13:36:00,81.8,74.6,29.94,West,276,11.0,12.0,79,0.00,,,0.00,Wunderground v.1.15,2013-05-22 17:36:00,
2013-05-22 13:37:00,81.8,74.6,29.94,West,272,7.0,12.0,79,0.00,,,0.00,Wunderground v.1.15,2013-05-22 17:37:00,
2013-05-22 13:38:00,81.8,74.3,29.94,SW,233,5.0,12.0,78,0.00,,,0.00,Wunderground v.1.15,2013-05-22 17:38:00,
2013-05-22 13:39:00,81.9,74.4,29.94,WNW,288,8.0,12.0,78,0.00,,,0.00,Wunderground v.1.15,2013-05-22 17:39:00,
2013-05-22 13:40:00,81.9,74.4,29.94,WSW,255,4.0,10.0,78,0.00,,,0.00,Wunderground v.1.15,2013-05-22 17:40:00,
2013-05-22 13:41:00,81.8,74.3,29.94,WNW,288,12.0,12.0,78,0.00,,,0.00,Wunderground v.1.15,2013-05-22 17:41:00,
2013-05-22 13:42:00,81.6,74.1,29.94,WNW,291,9.0,12.0,78,0.00,,,0.00,Wunderground v.1.15,2013-05-22 17:42:00,
2013-05-22 13:43:00,81.6,74.5,29.94,WSW,250,10.0,12.0,79,0.00,,,0.00,Wunderground v.1.15,2013-05-22 17:43:00,
2013-05-22 13:44:00,81.6,74.5,29.94,WNW,291,3.0,12.0,79,0.00,,,0.00,Wunderground v.1.15,2013-05-22 17:44:00,
2013-05-22 13:45:00,81.6,74.5,29.94,WNW,298,4.0,12.0,79,0.00,,,0.00,Wunderground v.1.15,2013-05-22 17:45:00,
2013-05-22 13:47:00,81.7,74.5,29.94,West,276,10.0,12.0,79,0.00,,,0.00,Wunderground v.1.15,2013-05-22 17:47:00,
2013-05-22 13:48:00,81.7,73.8,29.94,WNW,294,5.0,12.0,77,0.00,,,0.00,Wunderground v.1.15,2013-05-22 17:48:00,
2013-05-22 13:49:00,81.8,74.6,29.94,West,280,4.0,5.0,79,0.00,,,0.00,Wunderground v.1.15,2013-05-22 17:49:00,
2013-05-22 13:50:00,81.9,74.4,29.94,West,276,5.0,10.0,78,0.00,,,0.00,Wunderground v.1.15,2013-05-22 17:50:00,
2013-05-22 13:52:00,81.9,74.0,29.94,WNW,301,6.0,10.0,77,0.00,,,0.00,Wunderground v.1.15,2013-05-22 17:52:00,
2013-05-22 13:53:00,81.8,73.9,29.94,NW,312,4.0,11.0,77,0.00,,,0.00,Wunderground v.1.15,2013-05-22 17:53:00,
2013-05-22 13:54:00,81.8,74.3,29.94,WNW,298,4.0,11.0,78,0.00,,,0.00,Wunderground v.1.15,2013-05-22 17:54:00,
2013-05-22 13:55:00,81.9,74.4,29.94,West,259,9.0,11.0,78,0.00,,,0.00,Wunderground v.1.15,2013-05-22 17:55:00,
2013-05-22 13:57:00,82.0,74.1,29.94,WSW,240,4.0,12.0,77,0.00,,,0.00,Wunderground v.1.15,2013-05-22 17:57:00,
2013-05-22 13:58:00,82.1,74.2,29.94,WNW,300,4.0,12.0,77,0.00,,,0.00,Wunderground v.1.15,2013-05-22 17:58:00,
2013-05-22 14:00:00,82.1,74.2,29.93,WSW,257,4.0,8.0,77,0.00,,,0.00,Wunderground v.1.15,2013-05-22 18:00:00,
2013-05-22 14:01:00,82.2,74.3,29.93,West,265,7.0,8.0,77,0.00,,,0.00,Wunderground v.1.15,2013-05-22 18:01:00,
2013-05-22 14:02:00,82.2,74.3,29.93,West,272,6.0,10.0,77,0.00,,,0.00,Wunderground v.1.15,2013-05-22 18:02:00,
2013-05-22 14:03:00,82.1,74.2,29.93,West,263,6.0,11.0,77,0.00,,,0.00,Wunderground v.1.15,2013-05-22 18:03:00,
2013-05-22 14:04:00,82.0,73.7,29.93,WSW,237,6.0,11.0,76,0.00,,,0.00,Wunderground v.1.15,2013-05-22 18:04:00,
2013-05-22 14:05:00,81.8,73.9,29.93,West,266,8.0,11.0,77,0.00,,,0.00,Wunderground v.1.15,2013-05-22 18:05:00,
2013-05-22 14:06:00,81.8,74.3,29.93,WSW,257,7.0,11.0,78,0.00,,,0.00,Wunderground v.1.15,2013-05-22 18:06:00,
2013-05-22 14:08:00,81.9,74.4,29.93,NW,307,7.0,11.0,78,0.00,,,0.00,Wunderground v.1.15,2013-05-22 18:08:00,
2013-05-22 14:09:00,81.9,74.0,29.93,West,277,7.0,11.0,77,0.00,,,0.00,Wunderground v.1.15,2013-05-22 18:09:00,
2013-05-22 14:10:00,82.1,74.2,29.93,WNW,289,8.0,9.0,77,0.00,,,0.00,Wunderground v.1.15,2013-05-22 18:10:00,
2013-05-22 14:12:00,82.0,74.1,29.93,West,276,5.0,10.0,77,0.00,,,0.00,Wunderground v.1.15,2013-05-22 18:12:00,
2013-05-22 14:13:00,81.9,74.0,29.93,SW,233,5.0,10.0,77,0.00,,,0.00,Wunderground v.1.15,2013-05-22 18:13:00,
2013-05-22 14:14:00,82.0,74.5,29.93,WNW,291,5.0,10.0,78,0.00,,,0.00,Wunderground v.1.15,2013-05-22 18:14:00,
2013-05-22 14:15:00,82.0,74.1,29.93,West,270,5.0,11.0,77,0.00,,,0.00,Wunderground v.1.15,2013-05-22 18:15:00,
2013-05-22 14:17:00,81.9,74.0,29.93,SW,221,8.0,11.0,77,0.00,,,0.00,Wunderground v.1.15,2013-05-22 18:17:00,
2013-05-22 14:18:00,81.8,73.9,29.93,West,267,3.0,11.0,77,0.00,,,0.00,Wunderground v.1.15,2013-05-22 18:18:00,
2013-05-22 14:19:00,81.8,74.6,29.93,WSW,251,8.0,11.0,79,0.00,,,0.00,Wunderground v.1.15,2013-05-22 18:19:00,
2013-05-22 14:20:00,81.9,74.4,29.93,WNW,295,9.0,9.0,78,0.00,,,0.00,Wunderground v.1.15,2013-05-22 18:20:00,
2013-05-22 14:22:00,81.9,74.4,29.93,West,271,6.0,11.0,78,0.00,,,0.00,Wunderground v.1.15,2013-05-22 18:22:00,
2013-05-22 14:23:00,81.9,74.4,29.93,West,278,5.0,11.0,78,0.00,,,0.00,Wunderground v.1.15,2013-05-22 18:23:00,
2013-05-22 14:24:00,81.9,74.0,29.93,SW,227,10.0,12.0,77,0.00,,,0.00,Wunderground v.1.15,2013-05-22 18:24:00,
2013-05-22 14:26:00,81.8,74.3,29.93,West,263,5.0,12.0,78,0.00,,,0.00,Wunderground v.1.15,2013-05-22 18:26:00,
2013-05-22 14:27:00,81.9,74.7,29.93,West,271,6.0,12.0,79,0.00,,,0.00,Wunderground v.1.15,2013-05-22 18:27:00,
2013-05-22 14:28:00,81.9,74.4,29.93,WNW,285,11.0,12.0,78,0.00,,,0.00,Wunderground v.1.15,2013-05-22 18:28:00,
2013-05-22 14:29:00,81.7,73.8,29.93,WSW,253,10.0,12.0,77,0.00,,,0.00,Wunderground v.1.15,2013-05-22 18:29:00,
2013-05-22 14:31:00,81.7,74.5,29.93,WNW,287,5.0,9.0,79,0.00,,,0.00,Wunderground v.1.15,2013-05-22 18:31:00,
2013-05-22 14:32:00,81.9,74.4,29.93,WSW,256,8.0,10.0,78,0.00,,,0.00,Wunderground v.1.15,2013-05-22 18:32:00,
2013-05-22 14:33:00,82.0,74.5,29.93,West,265,4.0,10.0,78,0.00,,,0.00,Wunderground v.1.15,2013-05-22 18:33:00,
2013-05-22 14:34:00,82.0,74.5,29.93,WSW,256,6.0,11.0,78,0.00,,,0.00,Wunderground v.1.15,2013-05-22 18:34:00,
2013-05-22 14:36:00,81.9,74.4,29.93,West,266,8.0,13.0,78,0.00,,,0.00,Wunderground v.1.15,2013-05-22 18:36:00,
2013-05-22 14:37:00,81.7,73.8,29.93,WNW,285,6.0,13.0,77,0.00,,,0.00,Wunderground v.1.15,2013-05-22 18:37:00,
2013-05-22 14:38:00,81.7,73.8,29.93,SW,229,9.0,13.0,77,0.00,,,0.00,Wunderground v.1.15,2013-05-22 18:38:00,
2013-05-22 14:39:00,81.6,74.1,29.93,West,263,9.0,13.0,78,0.00,,,0.00,Wunderground v.1.15,2013-05-22 18:39:00,
2013-05-22 14:41:00,81.5,73.2,29.92,WSW,256,12.0,12.0,76,0.00,,,0.00,Wunderground v.1.15,2013-05-22 18:41:00,
2013-05-22 14:42:00,81.4,73.5,29.93,West,260,6.0,12.0,77,0.00,,,0.00,Wunderground v.1.15,2013-05-22 18:42:00,
2013-05-22 14:43:00,81.4,73.5,29.93,West,266,6.0,12.0,77,0.00,,,0.00,Wunderground v.1.15,2013-05-22 18:43:00,
2013-05-22 14:44:00,81.4,73.9,29.92,WNW,288,4.0,12.0,78,0.00,,,0.00,Wunderground v.1.15,2013-05-22 18:44:00,
2013-05-22 14:45:00,81.4,73.9,29.92,West,274,8.0,13.0,78,0.00,,,0.00,Wunderground v.1.15,2013-05-22 18:45:00,
2013-05-22 14:46:00,81.3,73.8,29.92,SW,215,4.0,13.0,78,0.00,,,0.00,Wunderground v.1.15,2013-05-22 18:46:00,
2013-05-22 14:47:00,81.4,73.9,29.92,West,276,5.0,13.0,78,0.00,,,0.00,Wunderground v.1.15,2013-05-22 18:47:00,
2013-05-22 14:48:00,81.5,74.4,29.92,WSW,252,4.0,13.0,79,0.00,,,0.00,Wunderground v.1.15,2013-05-22 18:48:00,
2013-05-22 14:49:00,81.6,74.1,29.92,WSW,257,7.0,13.0,78,0.00,,,0.00,Wunderground v.1.15,2013-05-22 18:49:00,
2013-05-22 14:50:00,81.7,73.8,29.92,WSW,250,9.0,10.0,77,0.00,,,0.00,Wunderground v.1.15,2013-05-22 18:50:00,
2013-05-22 14:52:00,81.7,74.2,29.92,SW,236,10.0,13.0,78,0.00,,,0.00,Wunderground v.1.15,2013-05-22 18:52:00,
2013-05-22 14:53:00,81.7,74.2,29.92,West,266,6.0,13.0,78,0.00,,,0.00,Wunderground v.1.15,2013-05-22 18:53:00,
2013-05-22 14:54:00,81.9,74.4,29.92,WNW,301,5.0,13.0,78,0.00,,,0.00,Wunderground v.1.15,2013-05-22 18:54:00,
2013-05-22 14:55:00,81.9,74.4,29.92,SW,233,5.0,13.0,78,0.00,,,0.00,Wunderground v.1.15,2013-05-22 18:55:00,
2013-05-22 14:57:00,82.1,74.2,29.92,WNW,283,6.0,15.0,77,0.00,,,0.00,Wunderground v.1.15,2013-05-22 18:57:00,
2013-05-22 14:58:00,82.1,74.2,29.92,West,274,10.0,15.0,77,0.00,,,0.00,Wunderground v.1.15,2013-05-22 18:58:00,
2013-05-22 14:59:00,81.9,74.0,29.92,WNW,285,9.0,10.0,77,0.00,,,0.00,Wunderground v.1.15,2013-05-22 18:59:00,
2013-05-22 15:00:00,81.9,74.0,29.92,West,264,8.0,12.0,77,0.00,,,0.00,Wunderground v.1.15,2013-05-22 19:00:00,
2013-05-22 15:02:00,81.6,73.7,29.92,West,278,8.0,12.0,77,0.00,,,0.00,Wunderground v.1.15,2013-05-22 19:02:00,
2013-05-22 15:03:00,81.6,73.7,29.92,WNW,295,6.0,12.0,77,0.00,,,0.00,Wunderground v.1.15,2013-05-22 19:03:00,
2013-05-22 15:04:00,81.7,74.2,29.92,SW,235,10.0,12.0,78,0.00,,,0.00,Wunderground v.1.15,2013-05-22 19:04:00,
2013-05-22 15:06:00,81.7,73.8,29.92,WNW,290,6.0,12.0,77,0.00,,,0.00,Wunderground v.1.15,2013-05-22 19:06:00,
2013-05-22 15:07:00,81.8,73.9,29.91,West,266,5.0,12.0,77,0.00,,,0.00,Wunderground v.1.15,2013-05-22 19:07:00,
2013-05-22 15:08:00,81.8,73.5,29.91,WSW,241,11.0,12.0,76,0.00,,,0.00,Wunderground v.1.15,2013-05-22 19:08:00,
2013-05-22 15:10:00,82.0,73.7,29.91,WNW,288,8.0,9.0,76,0.00,,,0.00,Wunderground v.1.15,2013-05-22 19:10:00,
2013-05-22 15:11:00,82.0,74.1,29.91,West,259,10.0,13.0,77,0.00,,,0.00,Wunderground v.1.15,2013-05-22 19:11:00,
2013-05-22 15:12:00,81.9,73.6,29.91,West,270,6.0,13.0,76,0.00,,,0.00,Wunderground v.1.15,2013-05-22 19:12:00,
2013-05-22 15:13:00,81.8,73.9,29.91,West,262,6.0,13.0,77,0.00,,,0.00,Wunderground v.1.15,2013-05-22 19:13:00,
2013-05-22 15:14:00,81.9,74.4,29.91,West,281,8.0,13.0,78,0.00,,,0.00,Wunderground v.1.15,2013-05-22 19:14:00,
2013-05-22 15:16:00,81.9,74.0,29.91,WSW,240,12.0,15.0,77,0.00,,,0.00,Wunderground v.1.15,2013-05-22 19:16:00,
2013-05-22 15:17:00,81.8,73.9,29.91,West,271,7.0,15.0,77,0.00,,,0.00,Wunderground v.1.15,2013-05-22 19:17:00,
2013-05-22 15:19:00,81.8,73.9,29.91,West,269,11.0,15.0,77,0.00,,,0.00,Wunderground v.1.15,2013-05-22 19:19:00,
2013-05-22 15:20:00,81.8,73.9,29.91,WSW,249,4.0,8.0,77,0.00,,,0.00,Wunderground v.1.15,2013-05-22 19:20:00,
2013-05-22 15:21:00,82.0,73.7,29.90,WNW,300,5.0,10.0,76,0.00,,,0.00,Wunderground v.1.15,2013-05-22 19:21:00,
2013-05-22 15:22:00,82.0,73.7,29.90,SW,236,5.0,10.0,76,0.00,,,0.00,Wunderground v.1.15,2013-05-22 19:22:00,
2013-05-22 15:24:00,82.1,74.2,29.91,WSW,252,3.0,10.0,77,0.00,,,0.00,Wunderground v.1.15,2013-05-22 19:24:00,
2013-05-22 15:25:00,82.2,73.9,29.90,WNW,293,4.0,12.0,76,0.00,,,0.00,Wunderground v.1.15,2013-05-22 19:25:00,
2013-05-22 15:26:00,82.4,74.5,29.90,West,259,5.0,12.0,77,0.00,,,0.00,Wunderground v.1.15,2013-05-22 19:26:00,
2013-05-22 15:27:00,82.4,74.5,29.90,WSW,248,4.0,12.0,77,0.00,,,0.00,Wunderground v.1.15,2013-05-22 19:27:00,
2013-05-22 15:28:00,82.5,74.2,29.90,WSW,243,4.0,12.0,76,0.00,,,0.00,Wunderground v.1.15,2013-05-22 19:28:00,
2013-05-22 15:29:00,82.7,74.4,29.91,WSW,255,4.0,12.0,76,0.00,,,0.00,Wunderground v.1.15,2013-05-22 19:29:00,
2013-05-22 15:30:00,82.7,74.4,29.90,West,264,5.0,6.0,76,0.00,,,0.00,Wunderground v.1.15,2013-05-22 19:30:00,
2013-05-22 15:31:00,82.9,74.2,29.91,WSW,239,9.0,12.0,75,0.00,,,0.00,Wunderground v.1.15,2013-05-22 19:31:00,
2013-05-22 15:32:00,82.8,74.1,29.91,WSW,251,10.0,12.0,75,0.00,,,0.00,Wunderground v.1.15,2013-05-22 19:32:00,
2013-05-22 15:33:00,82.6,73.9,29.90,West,278,8.0,12.0,75,0.00,,,0.00,Wunderground v.1.15,2013-05-22 19:33:00,
2013-05-22 15:34:00,82.6,73.9,29.90,West,281,3.0,12.0,75,0.00,,,0.00,Wunderground v.1.15,2013-05-22 19:34:00,
2013-05-22 15:35:00,82.5,73.8,29.90,West,271,6.0,15.0,75,0.00,,,0.00,Wunderground v.1.15,2013-05-22 19:35:00,
2013-05-22 15:37:00,82.4,74.1,29.90,SE,146,2.0,15.0,76,0.00,,,0.00,Wunderground v.1.15,2013-05-22 19:37:00,
2013-05-22 15:38:00,82.6,74.3,29.90,West,281,3.0,15.0,76,0.00,,,0.00,Wunderground v.1.15,2013-05-22 19:38:00,
2013-05-22 15:39:00,82.8,74.8,29.90,WNW,288,11.0,15.0,77,0.00,,,0.00,Wunderground v.1.15,2013-05-22 19:39:00,
2013-05-22 15:40:00,82.7,74.0,29.90,WNW,285,6.0,11.0,75,0.00,,,0.00,Wunderground v.1.15,2013-05-22 19:40:00,
2013-05-22 15:42:00,82.6,73.9,29.90,WSW,257,9.0,11.0,75,0.00,,,0.00,Wunderground v.1.15,2013-05-22 19:42:00,
2013-05-22 15:43:00,82.4,73.7,29.90,West,279,9.0,11.0,75,0.00,,,0.00,Wunderground v.1.15,2013-05-22 19:43:00,
2013-05-22 15:45:00,82.4,74.1,29.90,WNW,298,8.0,11.0,76,0.00,,,0.00,Wunderground v.1.15,2013-05-22 19:45:00,
2013-05-22 15:46:00,82.5,74.2,29.90,WNW,288,5.0,11.0,76,0.00,,,0.00,Wunderground v.1.15,2013-05-22 19:46:00,
2013-05-22 15:47:00,82.5,73.8,29.90,WSW,257,10.0,11.0,75,0.00,,,0.00,Wunderground v.1.15,2013-05-22 19:47:00,
2013-05-22 15:49:00,82.3,74.0,29.90,West,263,6.0,11.0,76,0.00,,,0.00,Wunderground v.1.15,2013-05-22 19:49:00,
2013-05-22 15:50:00,82.3,73.6,29.90,West,259,10.0,12.0,75,0.00,,,0.00,Wunderground v.1.15,2013-05-22 19:50:00,
2013-05-22 15:51:00,82.3,73.6,29.90,West,269,9.0,12.0,75,0.00,,,0.00,Wunderground v.1.15,2013-05-22 19:51:00,
2013-05-22 15:52:00,81.9,73.6,29.90,West,270,6.0,14.0,76,0.00,,,0.00,Wunderground v.1.15,2013-05-22 19:52:00,
2013-05-22 15:53:00,81.8,73.1,29.90,West,281,12.0,14.0,75,0.00,,,0.00,Wunderground v.1.15,2013-05-22 19:53:00,
2013-05-22 15:54:00,81.7,73.4,29.90,West,281,5.0,14.0,76,0.00,,,0.00,Wunderground v.1.15,2013-05-22 19:54:00,
2013-05-22 15:55:00,81.6,73.7,29.90,WNW,293,4.0,14.0,77,0.00,,,0.00,Wunderground v.1.15,2013-05-22 19:55:00,
2013-05-22 15:56:00,81.7,73.8,29.90,West,271,4.0,14.0,77,0.00,,,0.00,Wunderground v.1.15,2013-05-22 19:56:00,
2013-05-22 15:58:00,81.9,74.0,29.90,WSW,252,8.0,14.0,77,0.00,,,0.00,Wunderground v.1.15,2013-05-22 19:58:00,
2013-05-22 15:59:00,81.9,74.0,29.90,West,273,6.0,14.0,77,0.00,,,0.00,Wunderground v.1.15,2013-05-22 19:59:00,
2013-05-22 16:00:00,82.1,73.8,29.90,NW,314,7.0,10.0,76,0.00,,,0.00,Wunderground v.1.15,2013-05-22 20:00:00,
2013-05-22 16:01:00,82.2,73.9,29.90,WNW,283,3.0,10.0,76,0.00,,,0.00,Wunderground v.1.15,2013-05-22 20:01:00,
2013-05-22 16:03:00,82.5,74.2,29.90,WSW,254,3.0,10.0,76,0.00,,,0.00,Wunderground v.1.15,2013-05-22 20:03:00,
2013-05-22 16:04:00,82.5,73.8,29.90,WSW,242,10.0,11.0,75,0.00,,,0.00,Wunderground v.1.15,2013-05-22 20:04:00,
2013-05-22 16:06:00,82.4,73.3,29.90,SW,232,9.0,12.0,74,0.00,,,0.00,Wunderground v.1.15,2013-05-22 20:06:00,
2013-05-22 16:08:00,82.2,73.1,29.90,West,274,6.0,12.0,74,0.00,,,0.00,Wunderground v.1.15,2013-05-22 20:08:00,
2013-05-22 16:09:00,82.1,73.4,29.90,WNW,295,7.0,12.0,75,0.00,,,0.00,Wunderground v.1.15,2013-05-22 20:09:00,
2013-05-22 16:10:00,82.1,73.8,29.90,SW,226,6.0,6.0,76,0.00,,,0.00,Wunderground v.1.15,2013-05-22 20:10:00,
2013-05-22 16:11:00,82.2,73.5,29.90,West,278,3.0,8.0,75,0.00,,,0.00,Wunderground v.1.15,2013-05-22 20:11:00,
2013-05-22 16:13:00,82.4,73.7,29.90,WSW,239,6.0,8.0,75,0.00,,,0.00,Wunderground v.1.15,2013-05-22 20:13:00,
2013-05-22 16:14:00,82.5,73.8,29.90,WSW,249,8.0,8.0,75,0.00,,,0.00,Wunderground v.1.15,2013-05-22 20:14:00,
2013-05-22 16:15:00,82.6,73.9,29.90,SW,225,6.0,11.0,75,0.00,,,0.00,Wunderground v.1.15,2013-05-22 20:15:00,
2013-05-22 16:16:00,82.3,73.2,29.90,NW,312,4.0,11.0,74,0.00,,,0.00,Wunderground v.1.15,2013-05-22 20:16:00,
2013-05-22 16:17:00,82.3,73.6,29.90,WSW,255,9.0,11.0,75,0.00,,,0.00,Wunderground v.1.15,2013-05-22 20:17:00,
2013-05-22 16:18:00,82.2,73.9,29.90,WSW,253,4.0,11.0,76,0.00,,,0.00,Wunderground v.1.15,2013-05-22 20:18:00,
2013-05-22 16:19:00,82.3,74.0,29.90,WSW,249,4.0,11.0,76,0.00,,,0.00,Wunderground v.1.15,2013-05-22 20:19:00,
2013-05-22 16:20:00,82.2,73.5,29.90,WNW,288,8.0,10.0,75,0.00,,,0.00,Wunderground v.1.15,2013-05-22 20:20:00,
2013-05-22 16:21:00,82.1,73.4,29.90,West,277,3.0,10.0,75,0.00,,,0.00,Wunderground v.1.15,2013-05-22 20:21:00,
2013-05-22 16:22:00,82.1,73.4,29.90,WSW,245,5.0,10.0,75,0.00,,,0.00,Wunderground v.1.15,2013-05-22 20:22:00,
2013-05-22 16:23:00,82.2,73.9,29.89,SW,236,5.0,10.0,76,0.00,,,0.00,Wunderground v.1.15,2013-05-22 20:23:00,
2013-05-22 16:24:00,82.2,73.9,29.89,WNW,288,5.0,10.0,76,0.00,,,0.00,Wunderground v.1.15,2013-05-22 20:24:00,
2013-05-22 16:25:00,82.2,73.9,29.89,WNW,302,11.0,11.0,76,0.00,,,0.00,Wunderground v.1.15,2013-05-22 20:25:00,
2013-05-22 16:27:00,82.0,72.9,29.89,West,264,10.0,15.0,74,0.00,,,0.00,Wunderground v.1.15,2013-05-22 20:27:00,
2013-05-22 16:29:00,81.8,73.1,29.89,West,259,5.0,15.0,75,0.00,,,0.00,Wunderground v.1.15,2013-05-22 20:29:00,
2013-05-22 16:30:00,81.8,73.5,29.89,WNW,301,8.0,10.0,76,0.00,,,0.00,Wunderground v.1.15,2013-05-22 20:30:00,
2013-05-22 16:32:00,81.8,73.1,29.89,WNW,287,3.0,10.0,75,0.00,,,0.00,Wunderground v.1.15,2013-05-22 20:32:00,
2013-05-22 16:34:00,82.1,73.8,29.89,WNW,287,5.0,10.0,76,0.00,,,0.00,Wunderground v.1.15,2013-05-22 20:34:00,
2013-05-22 16:35:00,82.1,73.4,29.89,West,269,8.0,10.0,75,0.00,,,0.00,Wunderground v.1.15,2013-05-22 20:35:00,
2013-05-22 16:37:00,81.9,73.2,29.89,WNW,290,10.0,14.0,75,0.00,,,0.00,Wunderground v.1.15,2013-05-22 20:37:00,
2013-05-22 16:38:00,81.7,73.0,29.89,NNE,18,5.0,14.0,75,0.00,,,0.00,Wunderground v.1.15,2013-05-22 20:38:00,
2013-05-22 16:39:00,81.7,73.4,29.89,WSW,242,5.0,14.0,76,0.00,,,0.00,Wunderground v.1.15,2013-05-22 20:39:00,
2013-05-22 16:40:00,81.8,73.5,29.89,West,263,7.0,10.0,76,0.00,,,0.00,Wunderground v.1.15,2013-05-22 20:40:00,
2013-05-22 16:42:00,81.9,73.2,29.89,SSW,210,5.0,15.0,75,0.00,,,0.00,Wunderground v.1.15,2013-05-22 20:42:00,
2013-05-22 16:43:00,81.9,73.2,29.89,WNW,294,7.0,15.0,75,0.00,,,0.00,Wunderground v.1.15,2013-05-22 20:43:00,
2013-05-22 16:44:00,81.9,73.6,29.89,West,274,5.0,15.0,76,0.00,,,0.00,Wunderground v.1.15,2013-05-22 20:44:00,
2013-05-22 16:45:00,81.9,73.6,29.89,West,269,5.0,15.0,76,0.00,,,0.00,Wunderground v.1.15,2013-05-22 20:45:00,
2013-05-22 16:47:00,81.9,73.2,29.89,WNW,288,8.0,15.0,75,0.00,,,0.00,Wunderground v.1.15,2013-05-22 20:47:00,
2013-05-22 16:48:00,81.9,73.2,29.89,WSW,256,4.0,15.0,75,0.00,,,0.00,Wunderground v.1.15,2013-05-22 20:48:00,
2013-05-22 16:50:00,82.0,73.7,29.88,WNW,285,10.0,11.0,76,0.00,,,0.00,Wunderground v.1.15,2013-05-22 20:50:00,
2013-05-22 16:52:00,81.9,72.8,29.89,West,269,8.0,13.0,74,0.00,,,0.00,Wunderground v.1.15,2013-05-22 20:52:00,
2013-05-22 16:53:00,81.7,73.0,29.89,WNW,288,9.0,13.0,75,0.00,,,0.00,Wunderground v.1.15,2013-05-22 20:53:00,
2013-05-22 16:55:00,81.7,73.4,29.89,WNW,285,4.0,13.0,76,0.00,,,0.00,Wunderground v.1.15,2013-05-22 20:55:00,
2013-05-22 16:57:00,82.0,72.5,29.89,WSW,250,8.0,13.0,73,0.00,,,0.00,Wunderground v.1.15,2013-05-22 20:57:00,
2013-05-22 16:58:00,82.0,72.5,29.89,NW,314,8.0,13.0,73,0.00,,,0.00,Wunderground v.1.15,2013-05-22 20:58:00,
2013-05-22 17:00:00,82.0,72.5,29.88,WSW,249,4.0,13.0,73,0.00,,,0.00,Wunderground v.1.15,2013-05-22 21:00:00,
2013-05-22 17:01:00,82.0,72.5,29.89,West,266,7.0,13.0,73,0.00,,,0.00,Wunderground v.1.15,2013-05-22 21:01:00,
2013-05-22 17:02:00,82.1,72.6,29.89,West,263,6.0,13.0,73,0.00,,,0.00,Wunderground v.1.15,2013-05-22 21:02:00,
2013-05-22 17:04:00,82.1,72.6,29.89,SW,233,5.0,13.0,73,0.00,,,0.00,Wunderground v.1.15,2013-05-22 21:04:00,
2013-05-22 17:06:00,82.2,72.7,29.89,SSW,200,2.0,13.0,73,0.00,,,0.00,Wunderground v.1.15,2013-05-22 21:06:00,
2013-05-22 17:07:00,82.2,72.7,29.89,WNW,295,8.0,13.0,73,0.00,,,0.00,Wunderground v.1.15,2013-05-22 21:07:00,
2013-05-22 17:09:00,82.2,72.3,29.89,WSW,257,7.0,13.0,72,0.00,,,0.00,Wunderground v.1.15,2013-05-22 21:09:00,
2013-05-22 17:11:00,82.1,72.2,29.88,West,262,5.0,13.0,72,0.00,,,0.00,Wunderground v.1.15,2013-05-22 21:11:00,
2013-05-22 17:13:00,82.2,72.7,29.89,West,276,7.0,13.0,73,0.00,,,0.00,Wunderground v.1.15,2013-05-22 21:13:00,
2013-05-22 17:14:00,82.2,71.4,29.89,West,272,6.0,13.0,70,0.00,,,0.00,Wunderground v.1.15,2013-05-22 21:14:00,
2013-05-22 17:16:00,82.3,71.1,29.88,NW,316,4.0,13.0,69,0.00,,,0.00,Wunderground v.1.15,2013-05-22 21:16:00,
2013-05-22 17:18:00,82.5,71.7,29.89,West,266,5.0,13.0,70,0.00,,,0.00,Wunderground v.1.15,2013-05-22 21:18:00,
2013-05-22 17:19:00,82.6,71.8,29.89,WNW,295,9.0,13.0,70,0.00,,,0.00,Wunderground v.1.15,2013-05-22 21:19:00,
2013-05-22 17:21:00,82.5,70.9,29.89,WNW,294,5.0,9.0,68,0.00,,,0.00,Wunderground v.1.15,2013-05-22 21:21:00,
2013-05-22 17:23:00,82.3,71.1,29.89,WNW,295,4.0,12.0,69,0.00,,,0.00,Wunderground v.1.15,2013-05-22 21:23:00,
2013-05-22 17:24:00,82.3,71.5,29.89,WNW,295,3.0,12.0,70,0.00,,,0.00,Wunderground v.1.15,2013-05-22 21:24:00,
2013-05-22 17:26:00,82.3,72.0,29.89,WNW,285,6.0,12.0,71,0.00,,,0.00,Wunderground v.1.15,2013-05-22 21:26:00,
2013-05-22 17:28:00,82.2,71.4,29.88,WNW,298,6.0,12.0,70,0.00,,,0.00,Wunderground v.1.15,2013-05-22 21:28:00,
2013-05-22 17:29:00,82.1,71.3,29.88,West,280,3.0,6.0,70,0.00,,,0.00,Wunderground v.1.15,2013-05-22 21:29:00,
2013-05-22 17:31:00,82.2,71.4,29.88,NW,323,4.0,7.0,70,0.00,,,0.00,Wunderground v.1.15,2013-05-22 21:31:00,
2013-05-22 17:32:00,82.3,71.5,29.88,WNW,298,3.0,8.0,70,0.00,,,0.00,Wunderground v.1.15,2013-05-22 21:32:00,
2013-05-22 17:33:00,82.5,71.7,29.88,WNW,283,8.0,8.0,70,0.00,,,0.00,Wunderground v.1.15,2013-05-22 21:33:00,
2013-05-22 17:35:00,82.5,71.3,29.89,WNW,301,6.0,9.0,69,0.00,,,0.00,Wunderground v.1.15,2013-05-22 21:35:00,
2013-05-22 17:36:00,82.4,71.2,29.89,WNW,287,7.0,9.0,69,0.00,,,0.00,Wunderground v.1.15,2013-05-22 21:36:00,
2013-05-22 17:37:00,82.4,71.2,29.89,NW,312,6.0,9.0,69,0.00,,,0.00,Wunderground v.1.15,2013-05-22 21:37:00,
2013-05-22 17:38:00,82.3,71.5,29.89,WNW,294,4.0,9.0,70,0.00,,,0.00,Wunderground v.1.15,2013-05-22 21:38:00,
2013-05-22 17:40:00,82.3,71.5,29.89,WNW,289,4.0,8.0,70,0.00,,,0.00,Wunderground v.1.15,2013-05-22 21:40:00,
2013-05-22 17:42:00,82.5,71.7,29.89,WNW,283,8.0,10.0,70,0.00,,,0.00,Wunderground v.1.15,2013-05-22 21:42:00,
2013-05-22 17:43:00,82.5,71.3,29.89,WNW,290,8.0,10.0,69,0.00,,,0.00,Wunderground v.1.15,2013-05-22 21:43:00,
2013-05-22 17:45:00,82.5,71.3,29.89,WSW,257,6.0,10.0,69,0.00,,,0.00,Wunderground v.1.15,2013-05-22 21:45:00,
2013-05-22 17:47:00,82.5,71.3,29.89,West,280,5.0,11.0,69,0.00,,,0.00,Wunderground v.1.15,2013-05-22 21:47:00,
2013-05-22 17:48:00,82.5,71.7,29.89,WNW,284,4.0,11.0,70,0.00,,,0.00,Wunderground v.1.15,2013-05-22 21:48:00,
2013-05-22 17:51:00,82.5,72.1,29.89,WNW,301,5.0,6.0,71,0.00,,,0.00,Wunderground v.1.15,2013-05-22 21:51:00,
2013-05-22 17:52:00,82.7,72.3,29.89,WNW,283,7.0,8.0,71,0.00,,,0.00,Wunderground v.1.15,2013-05-22 21:52:00,
2013-05-22 17:53:00,82.8,71.6,29.89,NNW,334,4.0,8.0,69,0.00,,,0.00,Wunderground v.1.15,2013-05-22 21:53:00,
2013-05-22 17:56:00,82.9,72.1,29.88,NNW,340,3.0,9.0,70,0.00,,,0.00,Wunderground v.1.15,2013-05-22 21:56:00,
2013-05-22 17:57:00,83.0,72.2,29.89,NW,320,5.0,9.0,70,0.00,,,0.00,Wunderground v.1.15,2013-05-22 21:57:00,
2013-05-22 17:59:00,82.9,71.3,29.89,WNW,289,4.0,9.0,68,0.00,,,0.00,Wunderground v.1.15,2013-05-22 21:59:00,
2013-05-22 18:01:00,82.7,71.1,29.88,WSW,242,4.0,10.0,68,0.00,,,0.00,Wunderground v.1.15,2013-05-22 22:01:00,
2013-05-22 18:02:00,82.7,71.1,29.88,WNW,291,3.0,10.0,68,0.00,,,0.00,Wunderground v.1.15,2013-05-22 22:02:00,
2013-05-22 18:03:00,82.6,71.4,29.88,WNW,291,8.0,10.0,69,0.00,,,0.00,Wunderground v.1.15,2013-05-22 22:03:00,
2013-05-22 18:04:00,82.6,70.5,29.88,WNW,290,5.0,10.0,67,0.00,,,0.00,Wunderground v.1.15,2013-05-22 22:04:00,
2013-05-22 18:06:00,82.6,71.4,29.88,NNW,338,3.0,10.0,69,0.00,,,0.00,Wunderground v.1.15,2013-05-22 22:06:00,
2013-05-22 18:07:00,82.8,71.2,29.88,WSW,256,4.0,10.0,68,0.00,,,0.00,Wunderground v.1.15,2013-05-22 22:07:00,
2013-05-22 18:08:00,82.8,71.6,29.88,WNW,288,2.0,10.0,69,0.00,,,0.00,Wunderground v.1.15,2013-05-22 22:08:00,
2013-05-22 18:09:00,83.0,71.3,29.88,West,263,1.0,10.0,68,0.00,,,0.00,Wunderground v.1.15,2013-05-22 22:09:00,
2013-05-22 18:11:00,83.1,72.3,29.88,West,259,6.0,10.0,70,0.00,,,0.00,Wunderground v.1.15,2013-05-22 22:11:00,
2013-05-22 18:13:00,82.9,72.1,29.88,West,264,4.0,10.0,70,0.00,,,0.00,Wunderground v.1.15,2013-05-22 22:13:00,
2013-05-22 18:14:00,82.8,72.0,29.88,West,263,3.0,10.0,70,0.00,,,0.00,Wunderground v.1.15,2013-05-22 22:14:00,
2013-05-22 18:15:00,82.7,72.3,29.88,West,271,5.0,10.0,71,0.00,,,0.00,Wunderground v.1.15,2013-05-22 22:15:00,
2013-05-22 18:16:00,82.7,72.3,29.88,WSW,249,4.0,10.0,71,0.00,,,0.00,Wunderground v.1.15,2013-05-22 22:16:00,
2013-05-22 18:18:00,82.8,72.4,29.88,West,273,6.0,10.0,71,0.00,,,0.00,Wunderground v.1.15,2013-05-22 22:18:00,
2013-05-22 18:19:00,82.7,72.3,29.88,West,260,4.0,5.0,71,0.00,,,0.00,Wunderground v.1.15,2013-05-22 22:19:00,
2013-05-22 18:20:00,82.7,72.7,29.88,West,262,5.0,6.0,72,0.00,,,0.00,Wunderground v.1.15,2013-05-22 22:20:00,
2013-05-22 18:22:00,82.6,72.7,29.88,NW,323,6.0,10.0,72,0.00,,,0.00,Wunderground v.1.15,2013-05-22 22:22:00,
2013-05-22 18:23:00,82.5,72.6,29.88,WNW,293,3.0,10.0,72,0.00,,,0.00,Wunderground v.1.15,2013-05-22 22:23:00,
2013-05-22 18:25:00,82.5,72.1,29.88,WNW,295,5.0,10.0,71,0.00,,,0.00,Wunderground v.1.15,2013-05-22 22:25:00,
2013-05-22 18:26:00,82.4,72.5,29.89,West,262,4.0,10.0,72,0.00,,,0.00,Wunderground v.1.15,2013-05-22 22:26:00,
2013-05-22 18:27:00,82.4,72.9,29.89,WSW,240,4.0,10.0,73,0.00,,,0.00,Wunderground v.1.15,2013-05-22 22:27:00,
2013-05-22 18:28:00,82.4,72.9,29.89,West,268,3.0,10.0,73,0.00,,,0.00,Wunderground v.1.15,2013-05-22 22:28:00,
2013-05-22 18:30:00,82.5,73.0,29.89,WSW,250,8.0,8.0,73,0.00,,,0.00,Wunderground v.1.15,2013-05-22 22:30:00,
2013-05-22 18:31:00,82.4,72.5,29.89,West,274,6.0,11.0,72,0.00,,,0.00,Wunderground v.1.15,2013-05-22 22:31:00,
2013-05-22 18:32:00,82.2,72.7,29.89,WNW,293,6.0,11.0,73,0.00,,,0.00,Wunderground v.1.15,2013-05-22 22:32:00,
2013-05-22 18:33:00,82.1,72.6,29.89,West,262,6.0,11.0,73,0.00,,,0.00,Wunderground v.1.15,2013-05-22 22:33:00,
2013-05-22 18:35:00,82.0,72.5,29.89,WNW,287,9.0,11.0,73,0.00,,,0.00,Wunderground v.1.15,2013-05-22 22:35:00,
2013-05-22 18:36:00,81.9,72.8,29.89,West,267,4.0,12.0,74,0.00,,,0.00,Wunderground v.1.15,2013-05-22 22:36:00,
2013-05-22 18:37:00,81.7,72.6,29.89,WNW,300,4.0,12.0,74,0.00,,,0.00,Wunderground v.1.15,2013-05-22 22:37:00,
2013-05-22 18:38:00,81.6,72.5,29.89,WSW,252,3.0,12.0,74,0.00,,,0.00,Wunderground v.1.15,2013-05-22 22:38:00,
2013-05-22 18:39:00,81.6,72.5,29.89,WSW,252,4.0,12.0,74,0.00,,,0.00,Wunderground v.1.15,2013-05-22 22:39:00,
2013-05-22 18:40:00,81.5,72.4,29.89,WSW,242,4.0,10.0,74,0.00,,,0.00,Wunderground v.1.15,2013-05-22 22:40:00,
2013-05-22 18:42:00,81.5,72.4,29.89,West,264,4.0,10.0,74,0.00,,,0.00,Wunderground v.1.15,2013-05-22 22:42:00,
2013-05-22 18:43:00,81.4,72.7,29.89,SW,233,4.0,10.0,75,0.00,,,0.00,Wunderground v.1.15,2013-05-22 22:43:00,
2013-05-22 18:44:00,81.4,72.7,29.89,WNW,301,4.0,10.0,75,0.00,,,0.00,Wunderground v.1.15,2013-05-22 22:44:00,
2013-05-22 18:46:00,81.5,72.8,29.89,WNW,295,6.0,10.0,75,0.00,,,0.00,Wunderground v.1.15,2013-05-22 22:46:00,
2013-05-22 18:47:00,81.3,72.2,29.89,West,259,5.0,11.0,74,0.00,,,0.00,Wunderground v.1.15,2013-05-22 22:47:00,
2013-05-22 18:48:00,81.2,72.1,29.89,WNW,285,8.0,12.0,74,0.00,,,0.00,Wunderground v.1.15,2013-05-22 22:48:00,
2013-05-22 18:49:00,81.0,71.9,29.89,West,269,7.0,12.0,74,0.00,,,0.00,Wunderground v.1.15,2013-05-22 22:49:00,
2013-05-22 18:51:00,80.7,72.0,29.89,West,277,5.0,10.0,75,0.00,,,0.00,Wunderground v.1.15,2013-05-22 22:51:00,
2013-05-22 18:53:00,80.7,72.0,29.89,West,280,5.0,10.0,75,0.00,,,0.00,Wunderground v.1.15,2013-05-22 22:53:00,
2013-05-22 18:54:00,80.7,72.4,29.89,West,271,2.0,10.0,76,0.00,,,0.00,Wunderground v.1.15,2013-05-22 22:54:00,
2013-05-22 18:56:00,80.6,72.3,29.89,WNW,285,6.0,10.0,76,0.00,,,0.00,Wunderground v.1.15,2013-05-22 22:56:00,
2013-05-22 18:58:00,80.5,72.2,29.89,WSW,256,6.0,10.0,76,0.00,,,0.00,Wunderground v.1.15,2013-05-22 22:58:00,
2013-05-22 18:59:00,80.5,72.2,29.89,SW,215,6.0,10.0,76,0.00,,,0.00,Wunderground v.1.15,2013-05-22 22:59:00,
2013-05-22 19:00:00,80.5,72.2,29.89,WNW,296,4.0,5.0,76,0.00,,,0.00,Wunderground v.1.15,2013-05-22 23:00:00,
2013-05-22 19:01:00,80.6,72.7,29.89,West,270,7.0,9.0,77,0.00,,,0.00,Wunderground v.1.15,2013-05-22 23:01:00,
2013-05-22 19:03:00,80.6,72.3,29.90,West,281,7.0,10.0,76,0.00,,,0.00,Wunderground v.1.15,2013-05-22 23:03:00,
2013-05-22 19:04:00,80.5,72.2,29.90,West,277,5.0,10.0,76,0.00,,,0.00,Wunderground v.1.15,2013-05-22 23:04:00,
2013-05-22 19:05:00,80.5,72.2,29.90,SW,229,4.0,10.0,76,0.00,,,0.00,Wunderground v.1.15,2013-05-22 23:05:00,
2013-05-22 19:06:00,80.5,72.6,29.90,West,266,3.0,10.0,77,0.00,,,0.00,Wunderground v.1.15,2013-05-22 23:06:00,
2013-05-22 19:08:00,80.6,72.7,29.90,NW,312,6.0,10.0,77,0.00,,,0.00,Wunderground v.1.15,2013-05-22 23:08:00,
2013-05-22 19:09:00,80.5,72.6,29.90,WNW,287,6.0,10.0,77,0.00,,,0.00,Wunderground v.1.15,2013-05-22 23:09:00,
2013-05-22 19:10:00,80.5,72.6,29.90,NNE,23,4.0,6.0,77,0.00,,,0.00,Wunderground v.1.15,2013-05-22 23:10:00,
2013-05-22 19:12:00,80.5,72.6,29.90,West,280,3.0,7.0,77,0.00,,,0.00,Wunderground v.1.15,2013-05-22 23:12:00,
2013-05-22 19:13:00,80.4,72.5,29.90,WNW,300,5.0,11.0,77,0.00,,,0.00,Wunderground v.1.15,2013-05-22 23:13:00,
2013-05-22 19:14:00,80.4,72.5,29.90,NW,305,6.0,11.0,77,0.00,,,0.00,Wunderground v.1.15,2013-05-22 23:14:00,
2013-05-22 19:15:00,80.4,72.5,29.90,NNW,327,3.0,11.0,77,0.00,,,0.00,Wunderground v.1.15,2013-05-22 23:15:00,
2013-05-22 19:17:00,80.3,72.4,29.90,NW,326,4.0,11.0,77,0.00,,,0.00,Wunderground v.1.15,2013-05-22 23:17:00,
2013-05-22 19:19:00,80.3,72.4,29.90,WNW,303,5.0,11.0,77,0.00,,,0.00,Wunderground v.1.15,2013-05-22 23:19:00,
2013-05-22 19:20:00,80.3,72.4,29.90,WNW,283,4.0,11.0,77,0.00,,,0.00,Wunderground v.1.15,2013-05-22 23:20:00,
2013-05-22 19:22:00,80.3,72.8,29.90,NW,314,5.0,11.0,78,0.00,,,0.00,Wunderground v.1.15,2013-05-22 23:22:00,
2013-05-22 19:24:00,80.5,73.0,29.90,WNW,285,5.0,11.0,78,0.00,,,0.00,Wunderground v.1.15,2013-05-22 23:24:00,
2013-05-22 19:25:00,80.5,72.6,29.90,WNW,301,4.0,11.0,77,0.00,,,0.00,Wunderground v.1.15,2013-05-22 23:25:00,
2013-05-22 19:28:00,80.5,73.0,29.90,WNW,295,3.0,11.0,78,0.00,,,0.00,Wunderground v.1.15,2013-05-22 23:28:00,
2013-05-22 19:29:00,80.5,73.0,29.90,WNW,295,7.0,11.0,78,0.00,,,0.00,Wunderground v.1.15,2013-05-22 23:29:00,
2013-05-22 19:30:00,80.5,73.0,29.90,WNW,291,5.0,5.0,78,0.00,,,0.00,Wunderground v.1.15,2013-05-22 23:30:00,
2013-05-22 19:33:00,80.6,73.1,29.90,WNW,288,2.0,6.0,78,0.00,,,0.00,Wunderground v.1.15,2013-05-22 23:33:00,
2013-05-22 19:34:00,80.7,73.2,29.90,West,260,3.0,6.0,78,0.00,,,0.00,Wunderground v.1.15,2013-05-22 23:34:00,
2013-05-22 19:35:00,80.7,73.2,29.90,West,280,4.0,8.0,78,0.00,,,0.00,Wunderground v.1.15,2013-05-22 23:35:00,
2013-05-22 19:36:00,80.6,73.1,29.90,WNW,285,4.0,8.0,78,0.00,,,0.00,Wunderground v.1.15,2013-05-22 23:36:00,
2013-05-22 19:38:00,80.5,73.0,29.90,WNW,285,4.0,8.0,78,0.00,,,0.00,Wunderground v.1.15,2013-05-22 23:38:00,
2013-05-22 19:39:00,80.5,73.0,29.90,WSW,239,2.0,8.0,78,0.00,,,0.00,Wunderground v.1.15,2013-05-22 23:39:00,
2013-05-22 19:40:00,80.5,73.0,29.90,WNW,295,2.0,4.0,78,0.00,,,0.00,Wunderground v.1.15,2013-05-22 23:40:00,
2013-05-22 19:41:00,80.5,73.0,29.91,West,277,1.0,4.0,78,0.00,,,0.00,Wunderground v.1.15,2013-05-22 23:41:00,
2013-05-22 19:43:00,80.6,73.1,29.90,WNW,292,5.0,6.0,78,0.00,,,0.00,Wunderground v.1.15,2013-05-22 23:43:00,
2013-05-22 19:44:00,80.6,73.1,29.91,WNW,295,3.0,6.0,78,0.00,,,0.00,Wunderground v.1.15,2013-05-22 23:44:00,
2013-05-22 19:45:00,80.6,73.1,29.91,WNW,301,5.0,6.0,78,0.00,,,0.00,Wunderground v.1.15,2013-05-22 23:45:00,
2013-05-22 19:46:00,80.6,73.1,29.91,West,271,2.0,6.0,78,0.00,,,0.00,Wunderground v.1.15,2013-05-22 23:46:00,
2013-05-22 19:48:00,80.6,73.1,29.91,West,265,5.0,7.0,78,0.00,,,0.00,Wunderground v.1.15,2013-05-22 23:48:00,
2013-05-22 19:49:00,80.5,73.0,29.91,West,267,5.0,9.0,78,0.00,,,0.00,Wunderground v.1.15,2013-05-22 23:49:00,
2013-05-22 19:50:00,80.5,73.0,29.91,West,281,5.0,9.0,78,0.00,,,0.00,Wunderground v.1.15,2013-05-22 23:50:00,
2013-05-22 19:51:00,80.3,72.8,29.91,WNW,302,3.0,9.0,78,0.00,,,0.00,Wunderground v.1.15,2013-05-22 23:51:00,
2013-05-22 19:54:00,80.2,72.7,29.91,WNW,302,4.0,9.0,78,0.00,,,0.00,Wunderground v.1.15,2013-05-22 23:54:00,
2013-05-22 19:55:00,80.1,72.6,29.91,WNW,298,7.0,9.0,78,0.00,,,0.00,Wunderground v.1.15,2013-05-22 23:55:00,
2013-05-22 19:56:00,80.0,72.5,29.91,West,271,4.0,9.0,78,0.00,,,0.00,Wunderground v.1.15,2013-05-22 23:56:00,
2013-05-22 19:59:00,79.9,72.8,29.91,West,267,2.0,9.0,79,0.00,,,0.00,Wunderground v.1.15,2013-05-22 23:59:00,
2013-05-22 20:00:00,79.9,72.8,29.91,NW,315,3.0,4.0,79,0.00,,,0.00,Wunderground v.1.15,2013-05-23 00:00:00,
2013-05-22 20:01:00,79.9,72.8,29.91,WNW,300,6.0,6.0,79,0.00,,,0.00,Wunderground v.1.15,2013-05-23 00:01:00,
2013-05-22 20:04:00,79.8,72.7,29.91,NW,305,3.0,6.0,79,0.00,,,0.00,Wunderground v.1.15,2013-05-23 00:04:00,
2013-05-22 20:05:00,79.8,72.7,29.91,West,281,5.0,6.0,79,0.00,,,0.00,Wunderground v.1.15,2013-05-23 00:05:00,
2013-05-22 20:06:00,79.8,72.7,29.91,WSW,246,4.0,6.0,79,0.00,,,0.00,Wunderground v.1.15,2013-05-23 00:06:00,
2013-05-22 20:09:00,79.6,72.9,29.91,West,273,1.0,6.0,80,0.00,,,0.00,Wunderground v.1.15,2013-05-23 00:09:00,
2013-05-22 20:10:00,79.6,72.9,29.91,WNW,285,2.0,4.0,80,0.00,,,0.00,Wunderground v.1.15,2013-05-23 00:10:00,
2013-05-22 20:11:00,79.6,72.9,29.91,West,274,2.0,4.0,80,0.00,,,0.00,Wunderground v.1.15,2013-05-23 00:11:00,
2013-05-22 20:12:00,79.5,72.8,29.91,West,274,3.0,5.0,80,0.00,,,0.00,Wunderground v.1.15,2013-05-23 00:12:00,
2013-05-22 20:14:00,79.4,73.1,29.91,West,267,2.0,6.0,81,0.00,,,0.00,Wunderground v.1.15,2013-05-23 00:14:00,
2013-05-22 20:15:00,79.4,73.1,29.91,West,267,4.0,6.0,81,0.00,,,0.00,Wunderground v.1.15,2013-05-23 00:15:00,
2013-05-22 20:16:00,79.3,73.0,29.91,West,270,1.0,6.0,81,0.00,,,0.00,Wunderground v.1.15,2013-05-23 00:16:00,
2013-05-22 20:17:00,79.3,73.0,29.91,West,280,2.0,6.0,81,0.00,,,0.00,Wunderground v.1.15,2013-05-23 00:17:00,
2013-05-22 20:19:00,79.2,72.9,29.91,West,280,3.0,6.0,81,0.00,,,0.00,Wunderground v.1.15,2013-05-23 00:19:00,
2013-05-22 20:21:00,79.1,72.8,29.91,West,262,3.0,3.0,81,0.00,,,0.00,Wunderground v.1.15,2013-05-23 00:21:00,
2013-05-22 20:22:00,79.1,72.8,29.91,West,278,3.0,5.0,81,0.00,,,0.00,Wunderground v.1.15,2013-05-23 00:22:00,
2013-05-22 20:24:00,79.0,73.0,29.91,West,280,4.0,7.0,82,0.00,,,0.00,Wunderground v.1.15,2013-05-23 00:24:00,
2013-05-22 20:26:00,79.0,73.0,29.91,WNW,288,4.0,7.0,82,0.00,,,0.00,Wunderground v.1.15,2013-05-23 00:26:00,
2013-05-22 20:27:00,78.9,72.9,29.91,WNW,294,3.0,7.0,82,0.00,,,0.00,Wunderground v.1.15,2013-05-23 00:27:00,
2013-05-22 20:29:00,78.8,72.8,29.91,West,269,3.0,4.0,82,0.00,,,0.00,Wunderground v.1.15,2013-05-23 00:29:00,
2013-05-22 20:31:00,78.8,72.8,29.91,West,264,2.0,5.0,82,0.00,,,0.00,Wunderground v.1.15,2013-05-23 00:31:00,
2013-05-22 20:32:00,78.7,72.7,29.91,West,271,3.0,5.0,82,0.00,,,0.00,Wunderground v.1.15,2013-05-23 00:32:00,
2013-05-22 20:35:00,78.6,72.6,29.91,West,276,3.0,5.0,82,0.00,,,0.00,Wunderground v.1.15,2013-05-23 00:35:00,
2013-05-22 20:36:00,78.6,72.6,29.91,West,270,3.0,5.0,82,0.00,,,0.00,Wunderground v.1.15,2013-05-23 00:36:00,
2013-05-22 20:37:00,78.6,72.6,29.91,WNW,283,3.0,5.0,82,0.00,,,0.00,Wunderground v.1.15,2013-05-23 00:37:00,
2013-05-22 20:38:00,78.6,72.6,29.91,WNW,283,4.0,5.0,82,0.00,,,0.00,Wunderground v.1.15,2013-05-23 00:38:00,
2013-05-22 20:40:00,78.5,72.5,29.91,WNW,293,2.0,4.0,82,0.00,,,0.00,Wunderground v.1.15,2013-05-23 00:40:00,
2013-05-22 20:41:00,78.5,72.5,29.91,West,262,1.0,5.0,82,0.00,,,0.00,Wunderground v.1.15,2013-05-23 00:41:00,
2013-05-22 20:42:00,78.5,72.5,29.91,WNW,284,4.0,6.0,82,0.00,,,0.00,Wunderground v.1.15,2013-05-23 00:42:00,
2013-05-22 20:43:00,78.5,72.5,29.91,West,273,3.0,6.0,82,0.00,,,0.00,Wunderground v.1.15,2013-05-23 00:43:00,
2013-05-22 20:45:00,78.5,72.5,29.91,West,277,2.0,6.0,82,0.00,,,0.00,Wunderground v.1.15,2013-05-23 00:45:00,
2013-05-22 20:47:00,78.4,72.8,29.91,WNW,290,3.0,6.0,83,0.00,,,0.00,Wunderground v.1.15,2013-05-23 00:47:00,
2013-05-22 20:48:00,78.4,72.8,29.91,WNW,298,2.0,6.0,83,0.00,,,0.00,Wunderground v.1.15,2013-05-23 00:48:00,
2013-05-22 20:50:00,78.3,72.7,29.91,NW,310,3.0,5.0,83,0.00,,,0.00,Wunderground v.1.15,2013-05-23 00:50:00,
2013-05-22 20:52:00,78.3,72.7,29.91,West,276,3.0,5.0,83,0.00,,,0.00,Wunderground v.1.15,2013-05-23 00:52:00,
2013-05-22 20:53:00,78.3,72.7,29.91,West,266,3.0,5.0,83,0.00,,,0.00,Wunderground v.1.15,2013-05-23 00:53:00,
2013-05-22 20:55:00,78.3,72.7,29.91,WNW,298,3.0,6.0,83,0.00,,,0.00,Wunderground v.1.15,2013-05-23 00:55:00,
2013-05-22 20:57:00,78.2,72.6,29.91,NW,311,3.0,6.0,83,0.00,,,0.00,Wunderground v.1.15,2013-05-23 00:57:00,
2013-05-22 20:58:00,78.2,72.6,29.91,WNW,298,0.0,6.0,83,0.00,,,0.00,Wunderground v.1.15,2013-05-23 00:58:00,
2013-05-22 20:59:00,78.2,72.6,29.91,WNW,298,0.0,6.0,83,0.00,,,0.00,Wunderground v.1.15,2013-05-23 00:59:00,
2013-05-22 21:01:00,78.2,72.6,29.91,WNW,290,2.0,3.0,83,0.00,,,0.00,Wunderground v.1.15,2013-05-23 01:01:00,
2013-05-22 21:02:00,78.2,72.6,29.92,NW,305,2.0,3.0,83,0.00,,,0.00,Wunderground v.1.15,2013-05-23 01:02:00,
2013-05-22 21:03:00,78.1,72.5,29.91,WNW,302,1.0,3.0,83,0.00,,,0.00,Wunderground v.1.15,2013-05-23 01:03:00,
2013-05-22 21:04:00,78.1,72.5,29.91,WNW,288,1.0,3.0,83,0.00,,,0.00,Wunderground v.1.15,2013-05-23 01:04:00,
2013-05-22 21:06:00,78.1,72.5,29.92,West,271,2.0,6.0,83,0.00,,,0.00,Wunderground v.1.15,2013-05-23 01:06:00,
2013-05-22 21:07:00,78.1,72.5,29.92,WNW,285,3.0,6.0,83,0.00,,,0.00,Wunderground v.1.15,2013-05-23 01:07:00,
2013-05-22 21:08:00,78.0,72.4,29.92,WNW,288,3.0,6.0,83,0.00,,,0.00,Wunderground v.1.15,2013-05-23 01:08:00,
2013-05-22 21:09:00,78.0,72.4,29.92,WNW,285,3.0,6.0,83,0.00,,,0.00,Wunderground v.1.15,2013-05-23 01:09:00,
2013-05-22 21:11:00,78.0,72.4,29.92,WNW,300,3.0,3.0,83,0.00,,,0.00,Wunderground v.1.15,2013-05-23 01:11:00,
2013-05-22 21:12:00,78.0,72.4,29.92,WNW,288,1.0,4.0,83,0.00,,,0.00,Wunderground v.1.15,2013-05-23 01:12:00,
2013-05-22 21:13:00,77.9,72.3,29.92,NW,320,3.0,4.0,83,0.00,,,0.00,Wunderground v.1.15,2013-05-23 01:13:00,
2013-05-22 21:14:00,77.9,72.3,29.92,NW,309,3.0,4.0,83,0.00,,,0.00,Wunderground v.1.15,2013-05-23 01:14:00,
2013-05-22 21:16:00,77.9,72.3,29.92,WNW,302,5.0,5.0,83,0.00,,,0.00,Wunderground v.1.15,2013-05-23 01:16:00,
2013-05-22 21:18:00,77.9,72.3,29.92,NW,307,2.0,5.0,83,0.00,,,0.00,Wunderground v.1.15,2013-05-23 01:18:00,
2013-05-22 21:19:00,77.9,72.3,29.92,West,281,1.0,6.0,83,0.00,,,0.00,Wunderground v.1.15,2013-05-23 01:19:00,
2013-05-22 21:20:00,77.9,72.3,29.92,West,263,2.0,3.0,83,0.00,,,0.00,Wunderground v.1.15,2013-05-23 01:20:00,
2013-05-22 21:21:00,77.9,72.3,29.92,West,260,1.0,5.0,83,0.00,,,0.00,Wunderground v.1.15,2013-05-23 01:21:00,
2013-05-22 21:23:00,78.0,72.4,29.92,NW,305,1.0,5.0,83,0.00,,,0.00,Wunderground v.1.15,2013-05-23 01:23:00,
2013-05-22 21:24:00,78.0,72.4,29.92,NW,323,2.0,5.0,83,0.00,,,0.00,Wunderground v.1.15,2013-05-23 01:24:00,
2013-05-22 21:25:00,78.0,72.4,29.92,West,277,2.0,5.0,83,0.00,,,0.00,Wunderground v.1.15,2013-05-23 01:25:00,
2013-05-22 21:26:00,78.0,72.4,29.92,NW,318,1.0,5.0,83,0.00,,,0.00,Wunderground v.1.15,2013-05-23 01:26:00,
2013-05-22 21:28:00,78.0,72.4,29.92,NNW,330,3.0,5.0,83,0.00,,,0.00,Wunderground v.1.15,2013-05-23 01:28:00,
2013-05-22 21:29:00,78.0,72.4,29.92,NW,325,2.0,5.0,83,0.00,,,0.00,Wunderground v.1.15,2013-05-23 01:29:00,
2013-05-22 21:30:00,78.0,72.4,29.92,NW,304,2.0,4.0,83,0.00,,,0.00,Wunderground v.1.15,2013-05-23 01:30:00,
2013-05-22 21:31:00,78.0,72.4,29.92,West,276,2.0,4.0,83,0.00,,,0.00,Wunderground v.1.15,2013-05-23 01:31:00,
2013-05-22 21:33:00,77.9,72.3,29.92,WNW,300,1.0,4.0,83,0.00,,,0.00,Wunderground v.1.15,2013-05-23 01:33:00,
2013-05-22 21:34:00,77.9,72.3,29.92,WNW,288,1.0,4.0,83,0.00,,,0.00,Wunderground v.1.15,2013-05-23 01:34:00,
2013-05-22 21:35:00,78.0,72.4,29.92,West,269,3.0,5.0,83,0.00,,,0.00,Wunderground v.1.15,2013-05-23 01:35:00,
2013-05-22 21:36:00,78.0,72.4,29.92,West,266,3.0,5.0,83,0.00,,,0.00,Wunderground v.1.15,2013-05-23 01:36:00,
2013-05-22 21:38:00,77.9,72.7,29.92,WNW,297,2.0,5.0,84,0.00,,,0.00,Wunderground v.1.15,2013-05-23 01:38:00,
2013-05-22 21:39:00,77.9,72.7,29.91,West,278,4.0,5.0,84,0.00,,,0.00,Wunderground v.1.15,2013-05-23 01:39:00,
2013-05-22 21:40:00,77.9,72.7,29.92,West,280,2.0,4.0,84,0.00,,,0.00,Wunderground v.1.15,2013-05-23 01:40:00,
2013-05-22 21:41:00,77.9,72.7,29.92,WSW,252,1.0,4.0,84,0.00,,,0.00,Wunderground v.1.15,2013-05-23 01:41:00,
2013-05-22 21:43:00,77.8,72.6,29.91,NW,305,3.0,5.0,84,0.00,,,0.00,Wunderground v.1.15,2013-05-23 01:43:00,
2013-05-22 21:45:00,77.8,72.6,29.92,NW,323,2.0,5.0,84,0.00,,,0.00,Wunderground v.1.15,2013-05-23 01:45:00,
2013-05-22 21:46:00,77.8,72.6,29.92,West,261,0.0,5.0,84,0.00,,,0.00,Wunderground v.1.15,2013-05-23 01:46:00,
2013-05-22 21:47:00,77.8,72.6,29.92,WNW,294,1.0,5.0,84,0.00,,,0.00,Wunderground v.1.15,2013-05-23 01:47:00,
2013-05-22 21:48:00,77.8,72.6,29.92,WNW,285,2.0,5.0,84,0.00,,,0.00,Wunderground v.1.15,2013-05-23 01:48:00,
2013-05-22 21:50:00,77.7,72.5,29.92,WSW,250,1.0,3.0,84,0.00,,,0.00,Wunderground v.1.15,2013-05-23 01:50:00,
2013-05-22 21:51:00,77.7,72.5,29.92,West,263,2.0,3.0,84,0.00,,,0.00,Wunderground v.1.15,2013-05-23 01:51:00,
2013-05-22 21:52:00,77.7,72.5,29.92,WNW,287,3.0,4.0,84,0.00,,,0.00,Wunderground v.1.15,2013-05-23 01:52:00,
2013-05-22 21:53:00,77.7,72.5,29.92,West,278,2.0,4.0,84,0.00,,,0.00,Wunderground v.1.15,2013-05-23 01:53:00,
2013-05-22 21:55:00,77.7,72.5,29.92,WNW,283,2.0,4.0,84,0.00,,,0.00,Wunderground v.1.15,2013-05-23 01:55:00,
2013-05-22 21:56:00,77.7,72.5,29.92,NW,319,3.0,4.0,84,0.00,,,0.00,Wunderground v.1.15,2013-05-23 01:56:00,
2013-05-22 21:57:00,77.7,72.5,29.92,WSW,252,2.0,4.0,84,0.00,,,0.00,Wunderground v.1.15,2013-05-23 01:57:00,
2013-05-22 21:58:00,77.7,72.5,29.92,West,266,2.0,4.0,84,0.00,,,0.00,Wunderground v.1.15,2013-05-23 01:58:00,
2013-05-22 22:00:00,77.7,72.5,29.92,NW,309,1.0,2.0,84,0.00,,,0.00,Wunderground v.1.15,2013-05-23 02:00:00,
2013-05-22 22:01:00,77.7,72.5,29.92,NW,309,0.0,2.0,84,0.00,,,0.00,Wunderground v.1.15,2013-05-23 02:01:00,
2013-05-22 22:02:00,77.7,72.5,29.92,NW,311,2.0,3.0,84,0.00,,,0.00,Wunderground v.1.15,2013-05-23 02:02:00,
2013-05-22 22:04:00,77.7,72.5,29.92,West,270,1.0,3.0,84,0.00,,,0.00,Wunderground v.1.15,2013-05-23 02:04:00,
2013-05-22 22:06:00,77.7,72.5,29.92,NW,307,1.0,3.0,84,0.00,,,0.00,Wunderground v.1.15,2013-05-23 02:06:00,
2013-05-22 22:07:00,77.7,72.8,29.92,NW,307,0.0,3.0,85,0.00,,,0.00,Wunderground v.1.15,2013-05-23 02:07:00,
2013-05-22 22:08:00,77.6,72.7,29.92,NW,307,0.0,3.0,85,0.00,,,0.00,Wunderground v.1.15,2013-05-23 02:08:00,
2013-05-22 22:09:00,77.6,72.7,29.92,NW,307,0.0,3.0,85,0.00,,,0.00,Wunderground v.1.15,2013-05-23 02:09:00,
2013-05-22 22:11:00,77.6,72.7,29.92,NW,307,1.0,2.0,85,0.00,,,0.00,Wunderground v.1.15,2013-05-23 02:11:00,
2013-05-22 22:12:00,77.5,72.6,29.92,NW,307,1.0,2.0,85,0.00,,,0.00,Wunderground v.1.15,2013-05-23 02:12:00,
2013-05-22 22:13:00,77.5,72.6,29.92,NW,307,0.0,2.0,85,0.00,,,0.00,Wunderground v.1.15,2013-05-23 02:13:00,
2013-05-22 22:14:00,77.5,72.6,29.92,NW,307,1.0,2.0,85,0.00,,,0.00,Wunderground v.1.15,2013-05-23 02:14:00,
2013-05-22 22:16:00,77.5,72.6,29.92,NW,307,0.0,2.0,85,0.00,,,0.00,Wunderground v.1.15,2013-05-23 02:16:00,
2013-05-22 22:18:00,77.4,72.5,29.92,NW,307,0.0,2.0,85,0.00,,,0.00,Wunderground v.1.15,2013-05-23 02:18:00,
2013-05-22 22:19:00,77.4,72.5,29.92,NNW,347,0.0,2.0,85,0.00,,,0.00,Wunderground v.1.15,2013-05-23 02:19:00,
2013-05-22 22:21:00,77.3,72.4,29.93,ENE,68,2.0,2.0,85,0.00,,,0.00,Wunderground v.1.15,2013-05-23 02:21:00,
2013-05-22 22:23:00,77.2,72.3,29.93,ENE,68,1.0,2.0,85,0.00,,,0.00,Wunderground v.1.15,2013-05-23 02:23:00,
2013-05-22 22:24:00,77.2,72.3,29.93,ENE,68,1.0,2.0,85,0.00,,,0.00,Wunderground v.1.15,2013-05-23 02:24:00,
2013-05-22 22:26:00,77.0,72.1,29.93,ENE,68,0.0,2.0,85,0.00,,,0.00,Wunderground v.1.15,2013-05-23 02:26:00,
2013-05-22 22:27:00,77.0,72.1,29.93,ENE,68,0.0,2.0,85,0.00,,,0.00,Wunderground v.1.15,2013-05-23 02:27:00,
2013-05-22 22:28:00,76.9,72.0,29.93,ENE,68,0.0,2.0,85,0.00,,,0.00,Wunderground v.1.15,2013-05-23 02:28:00,
2013-05-22 22:29:00,76.9,72.0,29.93,ENE,68,0.0,2.0,85,0.00,,,0.00,Wunderground v.1.15,2013-05-23 02:29:00,
2013-05-22 22:32:00,76.8,72.3,29.93,ENE,68,0.0,1.0,86,0.00,,,0.00,Wunderground v.1.15,2013-05-23 02:32:00,
2013-05-22 22:33:00,76.7,72.2,29.93,ENE,72,1.0,1.0,86,0.00,,,0.00,Wunderground v.1.15,2013-05-23 02:33:00,
2013-05-22 22:34:00,76.7,72.2,29.93,ENE,72,1.0,1.0,86,0.00,,,0.00,Wunderground v.1.15,2013-05-23 02:34:00,
2013-05-22 22:37:00,76.6,72.1,29.93,ENE,73,1.0,1.0,86,0.00,,,0.00,Wunderground v.1.15,2013-05-23 02:37:00,
2013-05-22 22:38:00,76.5,72.0,29.93,ENE,73,0.0,1.0,86,0.00,,,0.00,Wunderground v.1.15,2013-05-23 02:38:00,
2013-05-22 22:39:00,76.5,72.0,29.93,ENE,73,0.0,1.0,86,0.00,,,0.00,Wunderground v.1.15,2013-05-23 02:39:00,
2013-05-22 22:42:00,76.4,71.9,29.93,ENE,73,0.0,1.0,86,0.00,,,0.00,Wunderground v.1.15,2013-05-23 02:42:00,
2013-05-22 22:44:00,76.3,71.8,29.94,SE,139,1.0,1.0,86,0.00,,,0.00,Wunderground v.1.15,2013-05-23 02:44:00,
2013-05-22 22:45:00,76.3,71.8,29.93,SSE,149,1.0,2.0,86,0.00,,,0.00,Wunderground v.1.15,2013-05-23 02:45:00,
2013-05-22 22:47:00,76.3,71.8,29.94,SSE,148,0.0,2.0,86,0.00,,,0.00,Wunderground v.1.15,2013-05-23 02:47:00,
2013-05-22 22:49:00,76.3,71.8,29.94,SSE,148,1.0,2.0,86,0.00,,,0.00,Wunderground v.1.15,2013-05-23 02:49:00,
2013-05-22 22:50:00,76.3,71.8,29.94,SSE,148,1.0,1.0,86,0.00,,,0.00,Wunderground v.1.15,2013-05-23 02:50:00,
2013-05-22 22:52:00,76.3,71.8,29.93,SSE,148,1.0,1.0,86,0.00,,,0.00,Wunderground v.1.15,2013-05-23 02:52:00,
2013-05-22 22:54:00,76.3,71.8,29.93,SE,126,1.0,2.0,86,0.00,,,0.00,Wunderground v.1.15,2013-05-23 02:54:00,
2013-05-22 22:55:00,76.3,71.8,29.93,SE,125,0.0,2.0,86,0.00,,,0.00,Wunderground v.1.15,2013-05-23 02:55:00,
2013-05-22 22:57:00,76.3,71.8,29.93,SE,125,0.0,2.0,86,0.00,,,0.00,Wunderground v.1.15,2013-05-23 02:57:00,
2013-05-22 22:59:00,76.3,71.8,29.93,SE,126,0.0,1.0,86,0.00,,,0.00,Wunderground v.1.15,2013-05-23 02:59:00,
2013-05-22 23:00:00,76.3,71.8,29.93,SE,125,1.0,1.0,86,0.00,,,0.00,Wunderground v.1.15,2013-05-23 03:00:00,
2013-05-22 23:02:00,76.4,71.9,29.94,SE,125,0.0,1.0,86,0.00,,,0.00,Wunderground v.1.15,2013-05-23 03:02:00,
2013-05-22 23:04:00,76.4,71.9,29.93,SE,125,0.0,1.0,86,0.00,,,0.00,Wunderground v.1.15,2013-05-23 03:04:00,
2013-05-22 23:05:00,76.3,71.8,29.93,SE,125,0.0,1.0,86,0.00,,,0.00,Wunderground v.1.15,2013-05-23 03:05:00,
2013-05-22 23:07:00,76.3,71.8,29.93,SE,125,0.0,1.0,86,0.00,,,0.00,Wunderground v.1.15,2013-05-23 03:07:00,
2013-05-22 23:09:00,76.2,71.7,29.93,SE,126,1.0,1.0,86,0.00,,,0.00,Wunderground v.1.15,2013-05-23 03:09:00,
2013-05-22 23:11:00,76.2,71.7,29.94,SE,125,1.0,1.0,86,0.00,,,0.00,Wunderground v.1.15,2013-05-23 03:11:00,
2013-05-22 23:12:00,76.2,71.7,29.94,SE,126,0.0,1.0,86,0.00,,,0.00,Wunderground v.1.15,2013-05-23 03:12:00,
2013-05-22 23:13:00,76.2,71.7,29.94,SE,126,0.0,1.0,86,0.00,,,0.00,Wunderground v.1.15,2013-05-23 03:13:00,
2013-05-22 23:14:00,76.2,71.7,29.94,SE,126,0.0,1.0,86,0.00,,,0.00,Wunderground v.1.15,2013-05-23 03:14:00,
2013-05-22 23:15:00,76.2,71.7,29.94,SE,126,0.0,1.0,86,0.00,,,0.00,Wunderground v.1.15,2013-05-23 03:15:00,
2013-05-22 23:16:00,76.2,71.7,29.94,SE,125,0.0,1.0,86,0.00,,,0.00,Wunderground v.1.15,2013-05-23 03:16:00,
2013-05-22 23:17:00,76.1,71.6,29.94,SE,127,0.0,1.0,86,0.00,,,0.00,Wunderground v.1.15,2013-05-23 03:17:00,
2013-05-22 23:18:00,76.1,71.6,29.94,SE,126,0.0,1.0,86,0.00,,,0.00,Wunderground v.1.15,2013-05-23 03:18:00,
2013-05-22 23:20:00,76.1,71.6,29.94,SE,126,0.0,0.0,86,0.00,,,0.00,Wunderground v.1.15,2013-05-23 03:20:00,
2013-05-22 23:21:00,76.0,71.5,29.94,SE,127,0.0,1.0,86,0.00,,,0.00,Wunderground v.1.15,2013-05-23 03:21:00,
2013-05-22 23:22:00,76.0,71.5,29.94,SE,127,0.0,1.0,86,0.00,,,0.00,Wunderground v.1.15,2013-05-23 03:22:00,
2013-05-22 23:23:00,76.0,71.5,29.94,SE,127,0.0,1.0,86,0.00,,,0.00,Wunderground v.1.15,2013-05-23 03:23:00,
2013-05-22 23:25:00,76.0,71.5,29.94,SE,127,1.0,1.0,86,0.00,,,0.00,Wunderground v.1.15,2013-05-23 03:25:00,
2013-05-22 23:26:00,76.0,71.5,29.94,SE,127,1.0,1.0,86,0.00,,,0.00,Wunderground v.1.15,2013-05-23 03:26:00,
2013-05-22 23:28:00,76.0,71.5,29.94,SE,127,0.0,1.0,86,0.00,,,0.00,Wunderground v.1.15,2013-05-23 03:28:00,
2013-05-22 23:29:00,76.0,71.5,29.94,SE,128,1.0,1.0,86,0.00,,,0.00,Wunderground v.1.15,2013-05-23 03:29:00,
2013-05-22 23:30:00,76.0,71.5,29.94,SE,128,0.0,1.0,86,0.00,,,0.00,Wunderground v.1.15,2013-05-23 03:30:00,
2013-05-22 23:31:00,75.9,71.4,29.94,SE,128,1.0,1.0,86,0.00,,,0.00,Wunderground v.1.15,2013-05-23 03:31:00,
2013-05-22 23:33:00,75.9,71.4,29.94,SE,128,0.0,1.0,86,0.00,,,0.00,Wunderground v.1.15,2013-05-23 03:33:00,
2013-05-22 23:34:00,75.9,71.4,29.94,SE,128,0.0,1.0,86,0.00,,,0.00,Wunderground v.1.15,2013-05-23 03:34:00,
2013-05-22 23:35:00,75.9,71.4,29.93,SE,128,0.0,1.0,86,0.00,,,0.00,Wunderground v.1.15,2013-05-23 03:35:00,
2013-05-22 23:36:00,75.8,71.3,29.93,SE,128,0.0,1.0,86,0.00,,,0.00,Wunderground v.1.15,2013-05-23 03:36:00,
2013-05-22 23:38:00,75.7,71.2,29.94,SE,129,0.0,1.0,86,0.00,,,0.00,Wunderground v.1.15,2013-05-23 03:38:00,
2013-05-22 23:39:00,75.7,71.2,29.94,SE,128,0.0,1.0,86,0.00,,,0.00,Wunderground v.1.15,2013-05-23 03:39:00,
2013-05-22 23:40:00,75.6,71.1,29.94,SE,128,0.0,0.0,86,0.00,,,0.00,Wunderground v.1.15,2013-05-23 03:40:00,
2013-05-22 23:41:00,75.6,71.1,29.94,SE,127,0.0,0.0,86,0.00,,,0.00,Wunderground v.1.15,2013-05-23 03:41:00,
2013-05-22 23:43:00,75.5,71.4,29.94,SE,127,1.0,1.0,87,0.00,,,0.00,Wunderground v.1.15,2013-05-23 03:43:00,
2013-05-22 23:45:00,75.5,71.4,29.94,SE,127,1.0,1.0,87,0.00,,,0.00,Wunderground v.1.15,2013-05-23 03:45:00,
2013-05-22 23:46:00,75.5,71.4,29.94,East,91,2.0,2.0,87,0.00,,,0.00,Wunderground v.1.15,2013-05-23 03:46:00,
2013-05-22 23:47:00,75.4,71.3,29.94,East,88,2.0,2.0,87,0.00,,,0.00,Wunderground v.1.15,2013-05-23 03:47:00,
2013-05-22 23:48:00,75.3,71.2,29.94,East,83,2.0,2.0,87,0.00,,,0.00,Wunderground v.1.15,2013-05-23 03:48:00,
2013-05-22 23:50:00,75.3,71.2,29.94,East,84,3.0,3.0,87,0.00,,,0.00,Wunderground v.1.15,2013-05-23 03:50:00,
2013-05-22 23:51:00,75.2,71.1,29.94,East,89,3.0,3.0,87,0.00,,,0.00,Wunderground v.1.15,2013-05-23 03:51:00,
2013-05-22 23:52:00,75.2,71.4,29.94,East,101,2.0,3.0,88,0.00,,,0.00,Wunderground v.1.15,2013-05-23 03:52:00,
2013-05-22 23:53:00,75.1,71.3,29.94,East,101,2.0,3.0,88,0.00,,,0.00,Wunderground v.1.15,2013-05-23 03:53:00,
2013-05-22 23:55:00,75.1,71.3,29.94,ENE,78,3.0,3.0,88,0.00,,,0.00,Wunderground v.1.15,2013-05-23 03:55:00,
2013-05-22 23:56:00,75.1,71.3,29.94,East,91,1.0,3.0,88,0.00,,,0.00,Wunderground v.1.15,2013-05-23 03:56:00,
2013-05-22 23:57:00,75.0,71.2,29.94,East,79,2.0,3.0,88,0.00,,,0.00,Wunderground v.1.15,2013-05-23 03:57:00,
2013-05-22 23:59:00,75.0,71.2,29.94,East,85,2.0,3.0,88,0.00,,,0.00,Wunderground v.1.15,2013-05-23 03:59:00,